Time,TemperatureF,DewpointF,PressureIn,WindDirection,WindDirectionDegrees,WindSpeedMPH,WindSpeedGustMPH,Humidity,HourlyPrecipIn,Conditions,Clouds,dailyrainin,SoftwareType,DateUTC
2013-05-29 00:01:00,64.9,62.5,30.08,ENE,61,0.0,4.0,92,0.00,,,0.01,Wunderground v.1.15,2013-05-29 04:01:00,
2013-05-29 00:02:00,64.9,62.5,30.08,ENE,61,0.0,4.0,92,0.00,,,0.01,Wunderground v.1.15,2013-05-29 04:02:00,
2013-05-29 00:03:00,64.9,62.5,30.08,ENE,61,0.0,4.0,92,0.00,,,0.01,Wunderground v.1.15,2013-05-29 04:03:00,
2013-05-29 00:04:00,64.9,62.5,30.08,ENE,61,0.0,4.0,92,0.00,,,0.01,Wunderground v.1.15,2013-05-29 04:04:00,
2013-05-29 00:05:00,64.9,62.5,30.08,ENE,61,0.0,4.0,92,0.00,,,0.01,Wunderground v.1.15,2013-05-29 04:05:00,
2013-05-29 00:07:00,64.9,62.5,30.08,ENE,61,0.0,4.0,92,0.00,,,0.01,Wunderground v.1.15,2013-05-29 04:07:00,
2013-05-29 00:10:00,64.9,62.8,30.08,ENE,61,0.0,4.0,93,0.00,,,0.01,Wunderground v.1.15,2013-05-29 04:10:00,
2013-05-29 00:11:00,64.9,62.8,30.08,ENE,61,0.0,4.0,93,0.00,,,0.01,Wunderground v.1.15,2013-05-29 04:11:00,
2013-05-29 00:12:00,64.9,62.8,30.09,ENE,61,0.0,4.0,93,0.00,,,0.01,Wunderground v.1.15,2013-05-29 04:12:00,
2013-05-29 00:15:00,64.9,62.8,30.09,ENE,61,0.0,4.0,93,0.00,,,0.01,Wunderground v.1.15,2013-05-29 04:15:00,
2013-05-29 00:16:00,64.8,62.7,30.09,ENE,61,0.0,4.0,93,0.00,,,0.01,Wunderground v.1.15,2013-05-29 04:16:00,
2013-05-29 00:17:00,64.8,62.7,30.09,ENE,61,0.0,4.0,93,0.00,,,0.01,Wunderground v.1.15,2013-05-29 04:17:00,
2013-05-29 00:19:00,64.8,62.7,30.09,ENE,61,0.0,4.0,93,0.00,,,0.01,Wunderground v.1.15,2013-05-29 04:19:00,
2013-05-29 00:21:00,64.8,62.7,30.09,ENE,61,0.0,0.0,93,0.00,,,0.01,Wunderground v.1.15,2013-05-29 04:21:00,
2013-05-29 00:23:00,64.8,62.7,30.09,ENE,61,0.0,0.0,93,0.00,,,0.01,Wunderground v.1.15,2013-05-29 04:23:00,
2013-05-29 00:24:00,64.7,62.6,30.09,ENE,61,0.0,0.0,93,0.00,,,0.01,Wunderground v.1.15,2013-05-29 04:24:00,
2013-05-29 00:25:00,64.7,62.6,30.09,ENE,61,0.0,0.0,93,0.00,,,0.01,Wunderground v.1.15,2013-05-29 04:25:00,
2013-05-29 00:26:00,64.7,62.6,30.09,ENE,61,0.0,0.0,93,0.00,,,0.01,Wunderground v.1.15,2013-05-29 04:26:00,
2013-05-29 00:29:00,64.7,62.6,30.09,ENE,61,0.0,0.0,93,0.00,,,0.01,Wunderground v.1.15,2013-05-29 04:29:00,
2013-05-29 00:30:00,64.7,62.6,30.09,ENE,61,0.0,0.0,93,0.00,,,0.01,Wunderground v.1.15,2013-05-29 04:30:00,
2013-05-29 00:31:00,64.6,62.5,30.09,ENE,61,0.0,0.0,93,0.00,,,0.01,Wunderground v.1.15,2013-05-29 04:31:00,
2013-05-29 00:35:00,64.6,62.8,30.09,ENE,61,0.0,0.0,94,0.00,,,0.01,Wunderground v.1.15,2013-05-29 04:35:00,
2013-05-29 00:36:00,64.6,62.8,30.09,ENE,61,0.0,0.0,94,0.00,,,0.01,Wunderground v.1.15,2013-05-29 04:36:00,
2013-05-29 00:37:00,64.6,62.8,30.09,ENE,61,0.0,0.0,94,0.00,,,0.01,Wunderground v.1.15,2013-05-29 04:37:00,
2013-05-29 00:40:00,64.6,62.8,30.09,ENE,61,0.0,0.0,94,0.00,,,0.01,Wunderground v.1.15,2013-05-29 04:40:00,
2013-05-29 00:41:00,64.5,62.7,30.09,ENE,61,0.0,0.0,94,0.00,,,0.01,Wunderground v.1.15,2013-05-29 04:41:00,
2013-05-29 00:42:00,64.5,62.7,30.09,ENE,61,0.0,0.0,94,0.00,,,0.01,Wunderground v.1.15,2013-05-29 04:42:00,
2013-05-29 00:43:00,64.5,62.7,30.09,ENE,61,0.0,0.0,94,0.00,,,0.01,Wunderground v.1.15,2013-05-29 04:43:00,
2013-05-29 00:45:00,64.5,62.7,30.09,ENE,61,0.0,0.0,94,0.00,,,0.01,Wunderground v.1.15,2013-05-29 04:45:00,
2013-05-29 00:46:00,64.5,62.7,30.09,ENE,61,0.0,0.0,94,0.00,,,0.01,Wunderground v.1.15,2013-05-29 04:46:00,
2013-05-29 00:47:00,64.5,62.7,30.09,ENE,61,0.0,0.0,94,0.00,,,0.01,Wunderground v.1.15,2013-05-29 04:47:00,
2013-05-29 00:52:00,64.4,62.6,30.08,ENE,61,0.0,0.0,94,0.00,,,0.01,Wunderground v.1.15,2013-05-29 04:52:00,
2013-05-29 00:54:00,64.4,62.6,30.08,ENE,61,0.0,0.0,94,0.00,,,0.01,Wunderground v.1.15,2013-05-29 04:54:00,
2013-05-29 00:55:00,64.3,62.5,30.08,ENE,61,0.0,0.0,94,0.00,,,0.01,Wunderground v.1.15,2013-05-29 04:55:00,
2013-05-29 00:56:00,64.3,62.5,30.08,ENE,61,0.0,0.0,94,0.00,,,0.01,Wunderground v.1.15,2013-05-29 04:56:00,
2013-05-29 00:59:00,64.3,62.5,30.08,ENE,61,0.0,0.0,94,0.00,,,0.01,Wunderground v.1.15,2013-05-29 04:59:00,
2013-05-29 01:00:00,64.3,62.5,30.08,ENE,61,0.0,0.0,94,0.00,,,0.01,Wunderground v.1.15,2013-05-29 05:00:00,
2013-05-29 01:01:00,64.3,62.5,30.08,ENE,61,0.0,0.0,94,0.00,,,0.01,Wunderground v.1.15,2013-05-29 05:01:00,
2013-05-29 01:05:00,64.3,62.5,30.08,ENE,61,0.0,0.0,94,0.00,,,0.01,Wunderground v.1.15,2013-05-29 05:05:00,
2013-05-29 01:07:00,64.2,62.4,30.08,ENE,61,0.0,0.0,94,0.00,,,0.01,Wunderground v.1.15,2013-05-29 05:07:00,
2013-05-29 01:08:00,64.2,62.4,30.09,ENE,61,0.0,0.0,94,0.00,,,0.01,Wunderground v.1.15,2013-05-29 05:08:00,
2013-05-29 01:11:00,64.1,62.3,30.08,ENE,61,0.0,0.0,94,0.00,,,0.00,Wunderground v.1.15,2013-05-29 05:11:00,
2013-05-29 01:12:00,64.1,62.3,30.09,ENE,61,0.0,0.0,94,0.00,,,0.00,Wunderground v.1.15,2013-05-29 05:12:00,
2013-05-29 01:16:00,64.0,62.2,30.08,ENE,61,0.0,0.0,94,0.00,,,0.00,Wunderground v.1.15,2013-05-29 05:16:00,
2013-05-29 01:17:00,64.0,62.2,30.08,ENE,61,0.0,0.0,94,0.00,,,0.00,Wunderground v.1.15,2013-05-29 05:17:00,
2013-05-29 01:18:00,64.0,62.2,30.08,ENE,61,0.0,0.0,94,0.00,,,0.00,Wunderground v.1.15,2013-05-29 05:18:00,
2013-05-29 01:19:00,64.0,62.2,30.08,ENE,61,0.0,0.0,94,0.00,,,0.00,Wunderground v.1.15,2013-05-29 05:19:00,
2013-05-29 01:21:00,63.9,62.1,30.08,ENE,61,0.0,0.0,94,0.00,,,0.00,Wunderground v.1.15,2013-05-29 05:21:00,
2013-05-29 01:24:00,63.9,62.1,30.08,ENE,61,0.0,0.0,94,0.00,,,0.00,Wunderground v.1.15,2013-05-29 05:24:00,
2013-05-29 01:25:00,63.9,62.1,30.08,ENE,61,0.0,0.0,94,0.00,,,0.00,Wunderground v.1.15,2013-05-29 05:25:00,
2013-05-29 01:26:00,63.9,62.1,30.08,ENE,61,0.0,0.0,94,0.00,,,0.00,Wunderground v.1.15,2013-05-29 05:26:00,
2013-05-29 01:27:00,63.9,62.4,30.08,ENE,61,0.0,0.0,95,0.00,,,0.00,Wunderground v.1.15,2013-05-29 05:27:00,
2013-05-29 01:31:00,63.8,62.3,30.08,ENE,61,0.0,0.0,95,0.00,,,0.00,Wunderground v.1.15,2013-05-29 05:31:00,
2013-05-29 01:32:00,63.8,62.3,30.08,ENE,61,0.0,0.0,95,0.00,,,0.00,Wunderground v.1.15,2013-05-29 05:32:00,
2013-05-29 01:34:00,63.7,62.2,30.08,ENE,61,0.0,0.0,95,0.00,,,0.00,Wunderground v.1.15,2013-05-29 05:34:00,
2013-05-29 01:36:00,63.7,62.2,30.08,ENE,61,0.0,0.0,95,0.00,,,0.00,Wunderground v.1.15,2013-05-29 05:36:00,
2013-05-29 01:38:00,63.6,62.1,30.08,ENE,61,0.0,0.0,95,0.00,,,0.00,Wunderground v.1.15,2013-05-29 05:38:00,
2013-05-29 01:40:00,63.6,62.1,30.08,ENE,61,0.0,0.0,95,0.00,,,0.00,Wunderground v.1.15,2013-05-29 05:40:00,
2013-05-29 01:41:00,63.6,62.1,30.08,ENE,61,0.0,0.0,95,0.00,,,0.00,Wunderground v.1.15,2013-05-29 05:41:00,
2013-05-29 01:42:00,63.6,62.1,30.08,ENE,61,0.0,0.0,95,0.00,,,0.00,Wunderground v.1.15,2013-05-29 05:42:00,
2013-05-29 01:47:00,63.5,62.0,30.08,ENE,61,0.0,1.0,95,0.00,,,0.00,Wunderground v.1.15,2013-05-29 05:47:00,
2013-05-29 01:50:00,63.5,62.0,30.07,ENE,61,0.0,1.0,95,0.00,,,0.00,Wunderground v.1.15,2013-05-29 05:50:00,
2013-05-29 01:51:00,63.5,62.0,30.07,NE,51,0.0,1.0,95,0.00,,,0.00,Wunderground v.1.15,2013-05-29 05:51:00,
2013-05-29 01:52:00,63.5,62.0,30.07,NE,51,0.0,1.0,95,0.00,,,0.00,Wunderground v.1.15,2013-05-29 05:52:00,
2013-05-29 01:55:00,63.6,62.1,30.07,NNW,342,0.0,2.0,95,0.00,,,0.00,Wunderground v.1.15,2013-05-29 05:55:00,
2013-05-29 01:56:00,63.6,62.1,30.07,NNW,343,0.0,2.0,95,0.00,,,0.00,Wunderground v.1.15,2013-05-29 05:56:00,
2013-05-29 01:57:00,63.6,62.1,30.07,NNW,343,0.0,2.0,95,0.00,,,0.00,Wunderground v.1.15,2013-05-29 05:57:00,
2013-05-29 01:59:00,63.7,62.2,30.07,NNW,329,0.0,2.0,95,0.00,,,0.00,Wunderground v.1.15,2013-05-29 05:59:00,
2013-05-29 02:00:00,63.7,62.2,30.07,NNW,329,0.0,1.0,95,0.00,,,0.00,Wunderground v.1.15,2013-05-29 06:00:00,
2013-05-29 02:01:00,63.7,62.2,30.07,NNW,329,0.0,1.0,95,0.00,,,0.00,Wunderground v.1.15,2013-05-29 06:01:00,
2013-05-29 02:02:00,63.7,62.2,30.08,NNW,329,0.0,1.0,95,0.00,,,0.00,Wunderground v.1.15,2013-05-29 06:02:00,
2013-05-29 02:03:00,63.7,62.5,30.07,NW,323,0.0,1.0,96,0.00,,,0.00,Wunderground v.1.15,2013-05-29 06:03:00,
2013-05-29 02:06:00,63.8,62.6,30.08,NW,323,0.0,1.0,96,0.00,,,0.00,Wunderground v.1.15,2013-05-29 06:06:00,
2013-05-29 02:07:00,63.8,62.6,30.07,NW,321,0.0,1.0,96,0.00,,,0.00,Wunderground v.1.15,2013-05-29 06:07:00,
2013-05-29 02:08:00,63.8,62.6,30.07,NW,321,0.0,1.0,96,0.00,,,0.00,Wunderground v.1.15,2013-05-29 06:08:00,
2013-05-29 02:09:00,63.8,62.6,30.07,NW,321,0.0,1.0,96,0.00,,,0.00,Wunderground v.1.15,2013-05-29 06:09:00,
2013-05-29 02:11:00,63.8,62.6,30.07,NW,321,0.0,1.0,96,0.00,,,0.00,Wunderground v.1.15,2013-05-29 06:11:00,
2013-05-29 02:13:00,63.8,62.6,30.07,NW,321,0.0,3.0,96,0.00,,,0.00,Wunderground v.1.15,2013-05-29 06:13:00,
2013-05-29 02:14:00,63.8,62.6,30.07,NW,321,0.0,3.0,96,0.00,,,0.00,Wunderground v.1.15,2013-05-29 06:14:00,
2013-05-29 02:15:00,63.8,62.6,30.07,WNW,298,0.0,3.0,96,0.00,,,0.00,Wunderground v.1.15,2013-05-29 06:15:00,
2013-05-29 02:18:00,63.8,62.6,30.07,NW,304,0.0,3.0,96,0.00,,,0.00,Wunderground v.1.15,2013-05-29 06:18:00,
2013-05-29 02:19:00,63.7,62.5,30.07,NW,305,0.0,3.0,96,0.00,,,0.00,Wunderground v.1.15,2013-05-29 06:19:00,
2013-05-29 02:21:00,63.7,62.5,30.07,NW,305,0.0,3.0,96,0.00,,,0.00,Wunderground v.1.15,2013-05-29 06:21:00,
2013-05-29 02:22:00,63.7,62.5,30.07,NW,305,0.0,3.0,96,0.00,,,0.00,Wunderground v.1.15,2013-05-29 06:22:00,
2013-05-29 02:24:00,63.7,62.5,30.07,NW,304,0.0,3.0,96,0.00,,,0.00,Wunderground v.1.15,2013-05-29 06:24:00,
2013-05-29 02:29:00,63.7,62.5,30.07,NW,304,0.0,3.0,96,0.00,,,0.00,Wunderground v.1.15,2013-05-29 06:29:00,
2013-05-29 02:31:00,63.6,62.4,30.07,NW,304,0.0,3.0,96,0.00,,,0.00,Wunderground v.1.15,2013-05-29 06:31:00,
2013-05-29 02:32:00,63.6,62.4,30.07,NW,304,0.0,3.0,96,0.00,,,0.00,Wunderground v.1.15,2013-05-29 06:32:00,
2013-05-29 02:34:00,63.6,62.4,30.07,NW,304,0.0,3.0,96,0.00,,,0.00,Wunderground v.1.15,2013-05-29 06:34:00,
2013-05-29 02:37:00,63.5,62.3,30.07,NW,304,0.0,3.0,96,0.00,,,0.00,Wunderground v.1.15,2013-05-29 06:37:00,
2013-05-29 02:39:00,63.4,62.2,30.07,NW,304,0.0,3.0,96,0.00,,,0.00,Wunderground v.1.15,2013-05-29 06:39:00,
2013-05-29 02:41:00,63.4,62.2,30.07,NW,304,0.0,3.0,96,0.00,,,0.00,Wunderground v.1.15,2013-05-29 06:41:00,
2013-05-29 02:42:00,63.4,62.2,30.07,NW,304,0.0,3.0,96,0.00,,,0.00,Wunderground v.1.15,2013-05-29 06:42:00,
2013-05-29 02:46:00,63.2,62.0,30.07,NW,304,0.0,3.0,96,0.00,,,0.00,Wunderground v.1.15,2013-05-29 06:46:00,
2013-05-29 02:47:00,63.2,62.0,30.07,NW,304,0.0,3.0,96,0.00,,,0.00,Wunderground v.1.15,2013-05-29 06:47:00,
2013-05-29 02:48:00,63.2,62.0,30.07,NW,304,0.0,3.0,96,0.00,,,0.00,Wunderground v.1.15,2013-05-29 06:48:00,
2013-05-29 02:50:00,63.1,61.9,30.07,NW,304,0.0,3.0,96,0.00,,,0.00,Wunderground v.1.15,2013-05-29 06:50:00,
2013-05-29 02:53:00,62.9,61.7,30.07,NW,304,0.0,3.0,96,0.00,,,0.00,Wunderground v.1.15,2013-05-29 06:53:00,
2013-05-29 02:55:00,62.9,61.7,30.07,NW,304,0.0,3.0,96,0.00,,,0.00,Wunderground v.1.15,2013-05-29 06:55:00,
2013-05-29 02:56:00,62.9,61.7,30.07,NW,304,0.0,3.0,96,0.00,,,0.00,Wunderground v.1.15,2013-05-29 06:56:00,
2013-05-29 02:58:00,62.8,61.6,30.07,NW,304,0.0,3.0,96,0.00,,,0.00,Wunderground v.1.15,2013-05-29 06:58:00,
2013-05-29 03:00:00,62.7,61.5,30.07,NW,304,0.0,3.0,96,0.00,,,0.00,Wunderground v.1.15,2013-05-29 07:00:00,
2013-05-29 03:02:00,62.7,61.5,30.06,NW,304,0.0,3.0,96,0.00,,,0.00,Wunderground v.1.15,2013-05-29 07:02:00,
2013-05-29 03:03:00,62.7,61.8,30.06,WNW,303,0.0,3.0,97,0.00,,,0.00,Wunderground v.1.15,2013-05-29 07:03:00,
2013-05-29 03:04:00,62.7,61.8,30.06,NW,304,0.0,3.0,97,0.00,,,0.00,Wunderground v.1.15,2013-05-29 07:04:00,
2013-05-29 03:06:00,62.7,61.8,30.06,NW,304,0.0,3.0,97,0.00,,,0.00,Wunderground v.1.15,2013-05-29 07:06:00,
2013-05-29 03:09:00,62.7,61.8,30.06,NW,304,0.0,3.0,97,0.00,,,0.00,Wunderground v.1.15,2013-05-29 07:09:00,
2013-05-29 03:10:00,62.7,61.8,30.06,WNW,303,0.0,3.0,97,0.00,,,0.00,Wunderground v.1.15,2013-05-29 07:10:00,
2013-05-29 03:12:00,62.7,61.8,30.06,WNW,303,0.0,3.0,97,0.00,,,0.00,Wunderground v.1.15,2013-05-29 07:12:00,
2013-05-29 03:14:00,62.7,61.8,30.06,NW,304,0.0,3.0,97,0.00,,,0.00,Wunderground v.1.15,2013-05-29 07:14:00,
2013-05-29 03:15:00,62.7,61.8,30.06,WNW,303,0.0,3.0,97,0.00,,,0.00,Wunderground v.1.15,2013-05-29 07:15:00,
2013-05-29 03:17:00,62.7,61.8,30.06,WNW,303,0.0,3.0,97,0.00,,,0.00,Wunderground v.1.15,2013-05-29 07:17:00,
2013-05-29 03:19:00,62.7,61.8,30.06,WNW,303,0.0,3.0,97,0.00,,,0.00,Wunderground v.1.15,2013-05-29 07:19:00,
2013-05-29 03:20:00,62.8,61.9,30.06,WNW,302,0.0,3.0,97,0.00,,,0.00,Wunderground v.1.15,2013-05-29 07:20:00,
2013-05-29 03:23:00,62.8,61.9,30.06,NW,305,1.0,3.0,97,0.00,,,0.00,Wunderground v.1.15,2013-05-29 07:23:00,
2013-05-29 03:24:00,62.8,61.9,30.06,NW,305,1.0,3.0,97,0.00,,,0.00,Wunderground v.1.15,2013-05-29 07:24:00,
2013-05-29 03:28:00,63.0,62.1,30.06,WNW,296,1.0,3.0,97,0.00,,,0.00,Wunderground v.1.15,2013-05-29 07:28:00,
2013-05-29 03:29:00,63.0,62.1,30.06,WNW,296,1.0,3.0,97,0.00,,,0.00,Wunderground v.1.15,2013-05-29 07:29:00,
2013-05-29 03:32:00,63.0,62.1,30.06,WNW,296,1.0,2.0,97,0.00,,,0.00,Wunderground v.1.15,2013-05-29 07:32:00,
2013-05-29 03:33:00,63.0,62.1,30.06,WNW,296,1.0,2.0,97,0.00,,,0.00,Wunderground v.1.15,2013-05-29 07:33:00,
2013-05-29 03:35:00,63.0,62.1,30.07,WNW,296,1.0,2.0,97,0.00,,,0.00,Wunderground v.1.15,2013-05-29 07:35:00,
2013-05-29 03:37:00,63.0,62.1,30.07,WNW,288,1.0,4.0,97,0.00,,,0.00,Wunderground v.1.15,2013-05-29 07:37:00,
2013-05-29 03:39:00,63.0,62.1,30.07,WNW,288,1.0,4.0,97,0.00,,,0.00,Wunderground v.1.15,2013-05-29 07:39:00,
2013-05-29 03:40:00,63.0,62.1,30.06,WNW,288,1.0,2.0,97,0.00,,,0.00,Wunderground v.1.15,2013-05-29 07:40:00,
2013-05-29 03:43:00,63.0,62.1,30.06,WNW,288,1.0,4.0,97,0.00,,,0.00,Wunderground v.1.15,2013-05-29 07:43:00,
2013-05-29 03:46:00,63.1,62.2,30.07,WNW,288,1.0,4.0,97,0.00,,,0.00,Wunderground v.1.15,2013-05-29 07:46:00,
2013-05-29 03:47:00,63.0,62.1,30.07,WNW,288,1.0,4.0,97,0.00,,,0.00,Wunderground v.1.15,2013-05-29 07:47:00,
2013-05-29 03:48:00,63.0,62.1,30.07,WNW,288,1.0,4.0,97,0.00,,,0.00,Wunderground v.1.15,2013-05-29 07:48:00,
2013-05-29 03:50:00,63.0,62.1,30.06,WNW,288,0.0,4.0,97,0.00,,,0.00,Wunderground v.1.15,2013-05-29 07:50:00,
2013-05-29 03:51:00,63.1,62.2,30.07,WNW,288,0.0,4.0,97,0.00,,,0.00,Wunderground v.1.15,2013-05-29 07:51:00,
2013-05-29 03:52:00,63.1,62.2,30.07,WNW,287,0.0,4.0,97,0.00,,,0.00,Wunderground v.1.15,2013-05-29 07:52:00,
2013-05-29 03:54:00,63.1,62.2,30.06,WNW,287,0.0,4.0,97,0.00,,,0.00,Wunderground v.1.15,2013-05-29 07:54:00,
2013-05-29 03:55:00,63.0,62.1,30.06,WNW,288,0.0,4.0,97,0.00,,,0.00,Wunderground v.1.15,2013-05-29 07:55:00,
2013-05-29 03:57:00,63.0,62.1,30.07,WNW,287,0.0,4.0,97,0.00,,,0.00,Wunderground v.1.15,2013-05-29 07:57:00,
2013-05-29 03:59:00,63.0,62.1,30.06,WNW,287,0.0,4.0,97,0.00,,,0.00,Wunderground v.1.15,2013-05-29 07:59:00,
2013-05-29 04:00:00,63.0,62.1,30.07,WNW,288,1.0,4.0,97,0.00,,,0.00,Wunderground v.1.15,2013-05-29 08:00:00,
2013-05-29 04:02:00,63.0,62.1,30.07,WNW,287,1.0,4.0,97,0.00,,,0.00,Wunderground v.1.15,2013-05-29 08:02:00,
2013-05-29 04:04:00,63.0,62.1,30.07,WNW,287,1.0,4.0,97,0.00,,,0.00,Wunderground v.1.15,2013-05-29 08:04:00,
2013-05-29 04:05:00,63.0,62.1,30.07,WNW,288,1.0,4.0,97,0.00,,,0.00,Wunderground v.1.15,2013-05-29 08:05:00,
2013-05-29 04:09:00,62.9,61.7,30.07,WNW,288,0.0,4.0,96,0.00,,,0.00,Wunderground v.1.15,2013-05-29 08:09:00,
2013-05-29 04:10:00,62.9,61.7,30.07,WNW,288,0.0,4.0,96,0.00,,,0.00,Wunderground v.1.15,2013-05-29 08:10:00,
2013-05-29 04:11:00,62.9,61.7,30.07,WNW,287,0.0,4.0,96,0.00,,,0.00,Wunderground v.1.15,2013-05-29 08:11:00,
2013-05-29 04:13:00,62.9,61.7,30.07,WNW,287,0.0,4.0,96,0.00,,,0.00,Wunderground v.1.15,2013-05-29 08:13:00,
2013-05-29 04:15:00,62.9,61.7,30.07,WNW,288,0.0,4.0,96,0.00,,,0.00,Wunderground v.1.15,2013-05-29 08:15:00,
2013-05-29 04:16:00,62.9,61.7,30.07,WNW,287,0.0,4.0,96,0.00,,,0.00,Wunderground v.1.15,2013-05-29 08:16:00,
2013-05-29 04:19:00,62.8,61.6,30.07,WNW,288,0.0,4.0,96,0.00,,,0.00,Wunderground v.1.15,2013-05-29 08:19:00,
2013-05-29 04:21:00,62.8,61.6,30.07,WNW,288,0.0,3.0,96,0.00,,,0.00,Wunderground v.1.15,2013-05-29 08:21:00,
2013-05-29 04:23:00,62.7,61.5,30.07,WNW,288,0.0,3.0,96,0.00,,,0.00,Wunderground v.1.15,2013-05-29 08:23:00,
2013-05-29 04:26:00,62.6,61.4,30.07,WNW,288,0.0,3.0,96,0.00,,,0.00,Wunderground v.1.15,2013-05-29 08:26:00,
2013-05-29 04:28:00,62.6,61.4,30.07,WNW,288,0.0,3.0,96,0.00,,,0.00,Wunderground v.1.15,2013-05-29 08:28:00,
2013-05-29 04:30:00,62.6,61.7,30.07,WNW,287,0.0,3.0,97,0.00,,,0.00,Wunderground v.1.15,2013-05-29 08:30:00,
2013-05-29 04:32:00,62.5,61.6,30.07,WNW,288,0.0,3.0,97,0.00,,,0.00,Wunderground v.1.15,2013-05-29 08:32:00,
2013-05-29 04:33:00,62.5,61.6,30.07,WNW,288,0.0,3.0,97,0.00,,,0.00,Wunderground v.1.15,2013-05-29 08:33:00,
2013-05-29 04:34:00,62.5,61.6,30.07,WNW,288,0.0,3.0,97,0.00,,,0.00,Wunderground v.1.15,2013-05-29 08:34:00,
2013-05-29 04:37:00,62.5,61.3,30.07,WNW,288,0.0,3.0,96,0.00,,,0.00,Wunderground v.1.15,2013-05-29 08:37:00,
2013-05-29 04:38:00,62.5,61.3,30.07,WNW,288,0.0,3.0,96,0.00,,,0.00,Wunderground v.1.15,2013-05-29 08:38:00,
2013-05-29 04:39:00,62.5,61.3,30.07,WNW,288,0.0,3.0,96,0.00,,,0.00,Wunderground v.1.15,2013-05-29 08:39:00,
2013-05-29 04:40:00,62.4,61.5,30.07,WNW,288,1.0,3.0,97,0.00,,,0.00,Wunderground v.1.15,2013-05-29 08:40:00,
2013-05-29 04:45:00,62.4,61.5,30.07,WNW,288,1.0,3.0,97,0.00,,,0.00,Wunderground v.1.15,2013-05-29 08:45:00,
2013-05-29 04:46:00,62.5,61.3,30.07,WNW,287,1.0,3.0,96,0.00,,,0.00,Wunderground v.1.15,2013-05-29 08:46:00,
2013-05-29 04:47:00,62.4,61.2,30.07,WNW,287,1.0,3.0,96,0.00,,,0.00,Wunderground v.1.15,2013-05-29 08:47:00,
2013-05-29 04:49:00,62.5,61.3,30.07,WNW,288,0.0,3.0,96,0.00,,,0.00,Wunderground v.1.15,2013-05-29 08:49:00,
2013-05-29 04:51:00,62.5,61.3,30.07,WNW,287,0.0,3.0,96,0.00,,,0.00,Wunderground v.1.15,2013-05-29 08:51:00,
2013-05-29 04:52:00,62.5,61.3,30.06,WNW,288,0.0,3.0,96,0.00,,,0.00,Wunderground v.1.15,2013-05-29 08:52:00,
2013-05-29 04:54:00,62.5,61.3,30.06,WNW,288,0.0,3.0,96,0.00,,,0.00,Wunderground v.1.15,2013-05-29 08:54:00,
2013-05-29 04:55:00,62.5,61.3,30.07,WNW,288,0.0,3.0,96,0.00,,,0.00,Wunderground v.1.15,2013-05-29 08:55:00,
2013-05-29 04:56:00,62.5,61.3,30.07,WNW,288,0.0,3.0,96,0.00,,,0.00,Wunderground v.1.15,2013-05-29 08:56:00,
2013-05-29 04:57:00,62.5,61.3,30.07,WNW,288,0.0,3.0,96,0.00,,,0.00,Wunderground v.1.15,2013-05-29 08:57:00,
2013-05-29 04:59:00,62.5,61.3,30.07,WNW,288,0.0,3.0,96,0.00,,,0.00,Wunderground v.1.15,2013-05-29 08:59:00,
2013-05-29 05:01:00,62.5,61.3,30.07,WNW,288,0.0,3.0,96,0.00,,,0.00,Wunderground v.1.15,2013-05-29 09:01:00,
2013-05-29 05:02:00,62.5,61.3,30.07,WNW,288,0.0,3.0,96,0.00,,,0.00,Wunderground v.1.15,2013-05-29 09:02:00,
2013-05-29 05:05:00,62.4,61.2,30.07,WNW,288,0.0,3.0,96,0.00,,,0.00,Wunderground v.1.15,2013-05-29 09:05:00,
2013-05-29 05:06:00,62.4,61.2,30.07,WNW,287,0.0,3.0,96,0.00,,,0.00,Wunderground v.1.15,2013-05-29 09:06:00,
2013-05-29 05:07:00,62.4,61.2,30.07,WNW,288,0.0,3.0,96,0.00,,,0.00,Wunderground v.1.15,2013-05-29 09:07:00,
2013-05-29 05:08:00,62.3,61.1,30.07,WNW,288,0.0,3.0,96,0.00,,,0.00,Wunderground v.1.15,2013-05-29 09:08:00,
2013-05-29 05:13:00,62.2,61.0,30.07,WNW,288,0.0,3.0,96,0.00,,,0.00,Wunderground v.1.15,2013-05-29 09:13:00,
2013-05-29 05:14:00,62.2,61.0,30.07,WNW,287,0.0,3.0,96,0.00,,,0.00,Wunderground v.1.15,2013-05-29 09:14:00,
2013-05-29 05:15:00,62.2,61.0,30.07,WNW,288,0.0,3.0,96,0.00,,,0.00,Wunderground v.1.15,2013-05-29 09:15:00,
2013-05-29 05:16:00,62.2,61.0,30.07,WNW,288,0.0,3.0,96,0.00,,,0.00,Wunderground v.1.15,2013-05-29 09:16:00,
2013-05-29 05:18:00,62.3,61.1,30.07,WNW,288,0.0,3.0,96,0.00,,,0.00,Wunderground v.1.15,2013-05-29 09:18:00,
2013-05-29 05:19:00,62.3,61.1,30.07,WNW,288,0.0,3.0,96,0.00,,,0.00,Wunderground v.1.15,2013-05-29 09:19:00,
2013-05-29 05:21:00,62.3,61.1,30.07,WNW,288,0.0,2.0,96,0.00,,,0.00,Wunderground v.1.15,2013-05-29 09:21:00,
2013-05-29 05:22:00,62.2,61.0,30.07,WNW,288,0.0,2.0,96,0.00,,,0.00,Wunderground v.1.15,2013-05-29 09:22:00,
2013-05-29 05:24:00,62.2,61.0,30.07,WNW,288,0.0,2.0,96,0.00,,,0.00,Wunderground v.1.15,2013-05-29 09:24:00,
2013-05-29 05:27:00,62.2,61.0,30.07,WNW,287,0.0,2.0,96,0.00,,,0.00,Wunderground v.1.15,2013-05-29 09:27:00,
2013-05-29 05:28:00,62.2,61.0,30.07,WNW,288,0.0,2.0,96,0.00,,,0.00,Wunderground v.1.15,2013-05-29 09:28:00,
2013-05-29 05:29:00,62.2,61.0,30.07,WNW,288,0.0,2.0,96,0.00,,,0.00,Wunderground v.1.15,2013-05-29 09:29:00,
2013-05-29 05:30:00,62.2,61.0,30.07,WNW,288,0.0,2.0,96,0.00,,,0.00,Wunderground v.1.15,2013-05-29 09:30:00,
2013-05-29 05:35:00,62.2,61.0,30.07,WNW,296,0.0,2.0,96,0.00,,,0.00,Wunderground v.1.15,2013-05-29 09:35:00,
2013-05-29 05:36:00,62.3,61.1,30.07,WNW,297,1.0,2.0,96,0.00,,,0.00,Wunderground v.1.15,2013-05-29 09:36:00,
2013-05-29 05:37:00,62.3,61.1,30.07,WNW,296,1.0,2.0,96,0.00,,,0.00,Wunderground v.1.15,2013-05-29 09:37:00,
2013-05-29 05:40:00,62.3,61.1,30.07,NW,322,1.0,2.0,96,0.00,,,0.00,Wunderground v.1.15,2013-05-29 09:40:00,
2013-05-29 05:42:00,62.4,61.2,30.07,NW,323,1.0,2.0,96,0.00,,,0.00,Wunderground v.1.15,2013-05-29 09:42:00,
2013-05-29 05:43:00,62.4,61.2,30.07,NW,323,1.0,3.0,96,0.00,,,0.00,Wunderground v.1.15,2013-05-29 09:43:00,
2013-05-29 05:44:00,62.5,61.3,30.07,NW,323,1.0,3.0,96,0.00,,,0.00,Wunderground v.1.15,2013-05-29 09:44:00,
2013-05-29 05:46:00,62.5,61.3,30.07,NW,322,1.0,3.0,96,0.00,,,0.00,Wunderground v.1.15,2013-05-29 09:46:00,
2013-05-29 05:47:00,62.5,61.3,30.07,NW,322,0.0,3.0,96,0.00,,,0.00,Wunderground v.1.15,2013-05-29 09:47:00,
2013-05-29 05:50:00,62.5,61.0,30.07,NW,322,0.0,3.0,95,0.00,,,0.00,Wunderground v.1.15,2013-05-29 09:50:00,
2013-05-29 05:51:00,62.5,61.0,30.07,NW,322,0.0,3.0,95,0.00,,,0.00,Wunderground v.1.15,2013-05-29 09:51:00,
2013-05-29 05:52:00,62.5,61.0,30.07,NW,322,0.0,3.0,95,0.00,,,0.00,Wunderground v.1.15,2013-05-29 09:52:00,
2013-05-29 05:53:00,62.5,61.0,30.07,NW,322,0.0,3.0,95,0.00,,,0.00,Wunderground v.1.15,2013-05-29 09:53:00,
2013-05-29 05:55:00,62.5,61.0,30.07,NW,322,0.0,3.0,95,0.00,,,0.00,Wunderground v.1.15,2013-05-29 09:55:00,
2013-05-29 05:57:00,62.5,61.0,30.07,NW,322,0.0,3.0,95,0.00,,,0.00,Wunderground v.1.15,2013-05-29 09:57:00,
2013-05-29 05:58:00,62.5,61.0,30.07,NW,322,0.0,3.0,95,0.00,,,0.00,Wunderground v.1.15,2013-05-29 09:58:00,
2013-05-29 06:00:00,62.5,61.0,30.07,NW,322,0.0,3.0,95,0.00,,,0.00,Wunderground v.1.15,2013-05-29 10:00:00,
2013-05-29 06:03:00,62.5,61.0,30.07,NW,322,0.0,3.0,95,0.00,,,0.00,Wunderground v.1.15,2013-05-29 10:03:00,
2013-05-29 06:04:00,62.5,61.0,30.07,NW,322,0.0,3.0,95,0.00,,,0.00,Wunderground v.1.15,2013-05-29 10:04:00,
2013-05-29 06:05:00,62.5,61.0,30.07,NW,322,0.0,3.0,95,0.00,,,0.00,Wunderground v.1.15,2013-05-29 10:05:00,
2013-05-29 06:06:00,62.5,61.0,30.07,NW,322,0.0,3.0,95,0.00,,,0.00,Wunderground v.1.15,2013-05-29 10:06:00,
2013-05-29 06:10:00,62.5,61.0,30.07,NW,322,0.0,3.0,95,0.00,,,0.00,Wunderground v.1.15,2013-05-29 10:10:00,
2013-05-29 06:11:00,62.5,61.0,30.07,NW,322,0.0,3.0,95,0.00,,,0.00,Wunderground v.1.15,2013-05-29 10:11:00,
2013-05-29 06:13:00,62.5,61.0,30.07,NW,322,0.0,3.0,95,0.00,,,0.00,Wunderground v.1.15,2013-05-29 10:13:00,
2013-05-29 06:15:00,62.5,61.0,30.07,NW,322,0.0,3.0,95,0.00,,,0.00,Wunderground v.1.15,2013-05-29 10:15:00,
2013-05-29 06:16:00,62.5,61.0,30.07,NW,322,0.0,3.0,95,0.00,,,0.00,Wunderground v.1.15,2013-05-29 10:16:00,
2013-05-29 06:20:00,62.5,61.0,30.07,NW,322,0.0,3.0,95,0.00,,,0.00,Wunderground v.1.15,2013-05-29 10:20:00,
2013-05-29 06:21:00,62.5,61.0,30.07,NW,322,0.0,3.0,95,0.00,,,0.00,Wunderground v.1.15,2013-05-29 10:21:00,
2013-05-29 06:22:00,62.5,61.0,30.07,NW,322,0.0,3.0,95,0.00,,,0.00,Wunderground v.1.15,2013-05-29 10:22:00,
2013-05-29 06:23:00,62.4,60.9,30.07,NW,322,0.0,3.0,95,0.00,,,0.00,Wunderground v.1.15,2013-05-29 10:23:00,
2013-05-29 06:26:00,62.4,60.9,30.07,NW,322,0.0,3.0,95,0.00,,,0.00,Wunderground v.1.15,2013-05-29 10:26:00,
2013-05-29 06:28:00,62.3,60.8,30.07,NW,322,0.0,3.0,95,0.00,,,0.00,Wunderground v.1.15,2013-05-29 10:28:00,
2013-05-29 06:29:00,62.3,60.8,30.07,NW,322,0.0,3.0,95,0.00,,,0.00,Wunderground v.1.15,2013-05-29 10:29:00,
2013-05-29 06:30:00,62.3,60.8,30.08,NW,322,0.0,3.0,95,0.00,,,0.00,Wunderground v.1.15,2013-05-29 10:30:00,
2013-05-29 06:31:00,62.4,60.9,30.07,NW,322,0.0,3.0,95,0.00,,,0.00,Wunderground v.1.15,2013-05-29 10:31:00,
2013-05-29 06:32:00,62.4,60.9,30.07,NW,322,0.0,3.0,95,0.00,,,0.00,Wunderground v.1.15,2013-05-29 10:32:00,
2013-05-29 06:34:00,62.4,60.9,30.08,NW,322,0.0,3.0,95,0.00,,,0.00,Wunderground v.1.15,2013-05-29 10:34:00,
2013-05-29 06:35:00,62.4,60.9,30.07,NW,322,0.0,3.0,95,0.00,,,0.00,Wunderground v.1.15,2013-05-29 10:35:00,
2013-05-29 06:36:00,62.4,60.9,30.07,NW,322,0.0,3.0,95,0.00,,,0.00,Wunderground v.1.15,2013-05-29 10:36:00,
2013-05-29 06:39:00,62.5,61.0,30.07,NW,322,0.0,3.0,95,0.00,,,0.00,Wunderground v.1.15,2013-05-29 10:39:00,
2013-05-29 06:41:00,62.5,61.0,30.08,NW,322,0.0,3.0,95,0.00,,,0.00,Wunderground v.1.15,2013-05-29 10:41:00,
2013-05-29 06:42:00,62.5,61.0,30.08,NW,322,0.0,3.0,95,0.00,,,0.00,Wunderground v.1.15,2013-05-29 10:42:00,
2013-05-29 06:43:00,62.6,61.1,30.08,NW,322,0.0,3.0,95,0.00,,,0.00,Wunderground v.1.15,2013-05-29 10:43:00,
2013-05-29 06:44:00,62.6,61.1,30.08,NW,322,0.0,3.0,95,0.00,,,0.00,Wunderground v.1.15,2013-05-29 10:44:00,
2013-05-29 06:46:00,62.6,61.1,30.08,NW,322,0.0,3.0,95,0.00,,,0.00,Wunderground v.1.15,2013-05-29 10:46:00,
2013-05-29 06:48:00,62.7,61.2,30.08,NW,322,0.0,3.0,95,0.00,,,0.00,Wunderground v.1.15,2013-05-29 10:48:00,
2013-05-29 06:49:00,62.7,61.2,30.08,NW,322,0.0,3.0,95,0.00,,,0.00,Wunderground v.1.15,2013-05-29 10:49:00,
2013-05-29 06:50:00,62.7,61.2,30.08,NW,322,0.0,2.0,95,0.00,,,0.00,Wunderground v.1.15,2013-05-29 10:50:00,
2013-05-29 06:53:00,62.7,60.9,30.08,NW,322,0.0,2.0,94,0.00,,,0.00,Wunderground v.1.15,2013-05-29 10:53:00,
2013-05-29 06:55:00,62.8,61.3,30.08,NW,322,0.0,2.0,95,0.00,,,0.00,Wunderground v.1.15,2013-05-29 10:55:00,
2013-05-29 06:56:00,62.8,61.3,30.08,NW,322,0.0,2.0,95,0.00,,,0.00,Wunderground v.1.15,2013-05-29 10:56:00,
2013-05-29 06:58:00,62.9,61.4,30.08,NW,322,0.0,2.0,95,0.00,,,0.00,Wunderground v.1.15,2013-05-29 10:58:00,
2013-05-29 07:02:00,63.0,61.2,30.08,NW,322,0.0,2.0,94,0.00,,,0.00,Wunderground v.1.15,2013-05-29 11:02:00,
2013-05-29 07:03:00,63.0,61.2,30.08,NW,322,0.0,2.0,94,0.00,,,0.00,Wunderground v.1.15,2013-05-29 11:03:00,
2013-05-29 07:04:00,63.0,61.2,30.09,NW,322,0.0,2.0,94,0.00,,,0.00,Wunderground v.1.15,2013-05-29 11:04:00,
2013-05-29 07:06:00,63.1,61.3,30.08,NW,322,0.0,2.0,94,0.00,,,0.00,Wunderground v.1.15,2013-05-29 11:06:00,
2013-05-29 07:08:00,63.1,61.3,30.08,NW,322,0.0,2.0,94,0.00,,,0.00,Wunderground v.1.15,2013-05-29 11:08:00,
2013-05-29 07:10:00,63.1,61.3,30.09,NW,322,0.0,2.0,94,0.00,,,0.00,Wunderground v.1.15,2013-05-29 11:10:00,
2013-05-29 07:11:00,63.2,61.4,30.09,NW,322,0.0,2.0,94,0.00,,,0.00,Wunderground v.1.15,2013-05-29 11:11:00,
2013-05-29 07:12:00,63.2,61.4,30.09,NW,322,0.0,2.0,94,0.00,,,0.00,Wunderground v.1.15,2013-05-29 11:12:00,
2013-05-29 07:14:00,63.3,61.5,30.09,NW,322,0.0,2.0,94,0.00,,,0.00,Wunderground v.1.15,2013-05-29 11:14:00,
2013-05-29 07:15:00,63.3,61.5,30.09,NW,322,0.0,2.0,94,0.00,,,0.00,Wunderground v.1.15,2013-05-29 11:15:00,
2013-05-29 07:17:00,63.3,61.5,30.09,NW,322,0.0,2.0,94,0.00,,,0.00,Wunderground v.1.15,2013-05-29 11:17:00,
2013-05-29 07:21:00,63.4,61.6,30.09,NW,321,0.0,1.0,94,0.00,,,0.00,Wunderground v.1.15,2013-05-29 11:21:00,
2013-05-29 07:23:00,63.5,61.7,30.09,NW,321,0.0,1.0,94,0.00,,,0.00,Wunderground v.1.15,2013-05-29 11:23:00,
2013-05-29 07:24:00,63.5,61.7,30.09,NW,321,0.0,1.0,94,0.00,,,0.00,Wunderground v.1.15,2013-05-29 11:24:00,
2013-05-29 07:26:00,63.6,61.8,30.09,NW,321,0.0,1.0,94,0.00,,,0.00,Wunderground v.1.15,2013-05-29 11:26:00,
2013-05-29 07:27:00,63.6,61.8,30.09,NW,320,0.0,2.0,94,0.00,,,0.00,Wunderground v.1.15,2013-05-29 11:27:00,
2013-05-29 07:29:00,63.6,61.8,30.09,NW,320,0.0,2.0,94,0.00,,,0.00,Wunderground v.1.15,2013-05-29 11:29:00,
2013-05-29 07:31:00,63.8,62.0,30.09,NW,320,0.0,1.0,94,0.00,,,0.00,Wunderground v.1.15,2013-05-29 11:31:00,
2013-05-29 07:32:00,63.8,62.0,30.09,NW,320,0.0,1.0,94,0.00,,,0.00,Wunderground v.1.15,2013-05-29 11:32:00,
2013-05-29 07:33:00,63.9,61.8,30.09,NW,320,0.0,1.0,93,0.00,,,0.00,Wunderground v.1.15,2013-05-29 11:33:00,
2013-05-29 07:35:00,63.9,61.8,30.09,NW,320,0.0,1.0,93,0.00,,,0.00,Wunderground v.1.15,2013-05-29 11:35:00,
2013-05-29 07:38:00,64.1,62.0,30.09,NW,319,0.0,1.0,93,0.00,,,0.00,Wunderground v.1.15,2013-05-29 11:38:00,
2013-05-29 07:39:00,64.2,62.1,30.09,NW,319,0.0,1.0,93,0.00,,,0.00,Wunderground v.1.15,2013-05-29 11:39:00,
2013-05-29 07:40:00,64.2,62.1,30.09,NW,319,0.0,1.0,93,0.00,,,0.00,Wunderground v.1.15,2013-05-29 11:40:00,
2013-05-29 07:41:00,64.3,62.2,30.09,NW,319,0.0,1.0,93,0.00,,,0.00,Wunderground v.1.15,2013-05-29 11:41:00,
2013-05-29 07:43:00,64.5,62.4,30.09,NW,319,0.0,2.0,93,0.00,,,0.00,Wunderground v.1.15,2013-05-29 11:43:00,
2013-05-29 07:46:00,64.7,62.6,30.09,NW,318,0.0,2.0,93,0.00,,,0.00,Wunderground v.1.15,2013-05-29 11:46:00,
2013-05-29 07:47:00,64.7,62.3,30.09,NW,318,0.0,2.0,92,0.00,,,0.00,Wunderground v.1.15,2013-05-29 11:47:00,
2013-05-29 07:48:00,64.9,62.5,30.09,NW,318,0.0,2.0,92,0.00,,,0.00,Wunderground v.1.15,2013-05-29 11:48:00,
2013-05-29 07:52:00,65.1,62.7,30.09,NW,317,0.0,2.0,92,0.00,,,0.00,Wunderground v.1.15,2013-05-29 11:52:00,
2013-05-29 07:53:00,65.2,62.8,30.09,NW,317,0.0,2.0,92,0.00,,,0.00,Wunderground v.1.15,2013-05-29 11:53:00,
2013-05-29 07:54:00,65.2,62.8,30.09,NW,317,0.0,2.0,92,0.00,,,0.00,Wunderground v.1.15,2013-05-29 11:54:00,
2013-05-29 07:55:00,65.3,62.9,30.10,NW,317,0.0,2.0,92,0.00,,,0.00,Wunderground v.1.15,2013-05-29 11:55:00,
2013-05-29 07:56:00,65.4,63.0,30.09,NW,317,0.0,2.0,92,0.00,,,0.00,Wunderground v.1.15,2013-05-29 11:56:00,
2013-05-29 07:58:00,65.5,63.1,30.10,NW,317,0.0,2.0,92,0.00,,,0.00,Wunderground v.1.15,2013-05-29 11:58:00,
2013-05-29 08:00:00,65.5,63.1,30.09,NW,317,0.0,2.0,92,0.00,,,0.00,Wunderground v.1.15,2013-05-29 12:00:00,
2013-05-29 08:01:00,65.6,63.2,30.10,NW,317,0.0,2.0,92,0.00,,,0.00,Wunderground v.1.15,2013-05-29 12:01:00,
2013-05-29 08:06:00,65.8,63.1,30.10,NW,317,0.0,2.0,91,0.00,,,0.00,Wunderground v.1.15,2013-05-29 12:06:00,
2013-05-29 08:07:00,65.9,63.2,30.10,NW,317,0.0,2.0,91,0.00,,,0.00,Wunderground v.1.15,2013-05-29 12:07:00,
2013-05-29 08:10:00,66.0,63.3,30.10,NW,315,0.0,2.0,91,0.00,,,0.00,Wunderground v.1.15,2013-05-29 12:10:00,
2013-05-29 08:11:00,66.1,63.4,30.10,NW,315,0.0,2.0,91,0.00,,,0.00,Wunderground v.1.15,2013-05-29 12:11:00,
2013-05-29 08:12:00,66.1,63.4,30.10,NW,306,0.0,2.0,91,0.00,,,0.00,Wunderground v.1.15,2013-05-29 12:12:00,
2013-05-29 08:17:00,66.4,63.7,30.10,WNW,294,0.0,2.0,91,0.00,,,0.00,Wunderground v.1.15,2013-05-29 12:17:00,
2013-05-29 08:19:00,66.6,63.6,30.10,WNW,284,1.0,7.0,90,0.00,,,0.00,Wunderground v.1.15,2013-05-29 12:19:00,
2013-05-29 08:22:00,66.8,63.8,30.10,WNW,283,1.0,2.0,90,0.00,,,0.00,Wunderground v.1.15,2013-05-29 12:22:00,
2013-05-29 08:23:00,66.9,63.6,30.10,North,360,1.0,3.0,89,0.00,,,0.00,Wunderground v.1.15,2013-05-29 12:23:00,
2013-05-29 08:24:00,67.0,63.6,30.10,NW,313,1.0,3.0,89,0.00,,,0.00,Wunderground v.1.15,2013-05-29 12:24:00,
2013-05-29 08:29:00,67.4,64.0,30.10,WNW,302,1.0,3.0,89,0.00,,,0.00,Wunderground v.1.15,2013-05-29 12:29:00,
2013-05-29 08:30:00,67.4,64.0,30.10,WNW,302,0.0,2.0,89,0.00,,,0.00,Wunderground v.1.15,2013-05-29 12:30:00,
2013-05-29 08:32:00,67.5,64.1,30.10,WNW,301,0.0,2.0,89,0.00,,,0.00,Wunderground v.1.15,2013-05-29 12:32:00,
2013-05-29 08:34:00,67.7,64.3,30.10,WNW,300,0.0,2.0,89,0.00,,,0.00,Wunderground v.1.15,2013-05-29 12:34:00,
2013-05-29 08:36:00,67.8,64.1,30.10,NW,307,0.0,2.0,88,0.00,,,0.00,Wunderground v.1.15,2013-05-29 12:36:00,
2013-05-29 08:37:00,67.8,64.1,30.10,WNW,292,0.0,4.0,88,0.00,,,0.00,Wunderground v.1.15,2013-05-29 12:37:00,
2013-05-29 08:38:00,67.8,64.1,30.10,WNW,286,0.0,4.0,88,0.00,,,0.00,Wunderground v.1.15,2013-05-29 12:38:00,
2013-05-29 08:42:00,67.9,64.2,30.10,WNW,294,0.0,2.0,88,0.00,,,0.00,Wunderground v.1.15,2013-05-29 12:42:00,
2013-05-29 08:43:00,67.9,64.2,30.10,WNW,294,0.0,7.0,88,0.00,,,0.00,Wunderground v.1.15,2013-05-29 12:43:00,
2013-05-29 08:45:00,68.0,64.3,30.11,NW,306,0.0,7.0,88,0.00,,,0.00,Wunderground v.1.15,2013-05-29 12:45:00,
2013-05-29 08:46:00,68.1,64.4,30.11,WNW,296,0.0,7.0,88,0.00,,,0.00,Wunderground v.1.15,2013-05-29 12:46:00,
2013-05-29 08:48:00,68.1,64.4,30.10,WNW,296,0.0,7.0,88,0.00,,,0.00,Wunderground v.1.15,2013-05-29 12:48:00,
2013-05-29 08:50:00,68.1,64.4,30.10,WNW,296,0.0,7.0,88,0.00,,,0.00,Wunderground v.1.15,2013-05-29 12:50:00,
2013-05-29 08:53:00,68.3,64.6,30.11,NW,312,1.0,7.0,88,0.00,,,0.00,Wunderground v.1.15,2013-05-29 12:53:00,
2013-05-29 08:54:00,68.3,64.6,30.11,WNW,301,1.0,7.0,88,0.00,,,0.00,Wunderground v.1.15,2013-05-29 12:54:00,
2013-05-29 08:55:00,68.4,64.7,30.11,NW,325,1.0,7.0,88,0.00,,,0.00,Wunderground v.1.15,2013-05-29 12:55:00,
2013-05-29 08:58:00,68.5,64.5,30.11,West,279,1.0,7.0,87,0.00,,,0.00,Wunderground v.1.15,2013-05-29 12:58:00,
2013-05-29 08:59:00,68.5,64.5,30.11,West,279,1.0,7.0,87,0.00,,,0.00,Wunderground v.1.15,2013-05-29 12:59:00,
2013-05-29 09:00:00,68.5,64.5,30.11,West,279,1.0,1.0,87,0.00,,,0.00,Wunderground v.1.15,2013-05-29 13:00:00,
2013-05-29 09:01:00,68.5,64.5,30.11,West,279,0.0,2.0,87,0.00,,,0.00,Wunderground v.1.15,2013-05-29 13:01:00,
2013-05-29 09:06:00,68.7,65.0,30.11,WNW,286,1.0,7.0,88,0.00,,,0.00,Wunderground v.1.15,2013-05-29 13:06:00,
2013-05-29 09:07:00,68.8,64.8,30.11,WNW,286,1.0,7.0,87,0.00,,,0.00,Wunderground v.1.15,2013-05-29 13:07:00,
2013-05-29 09:08:00,68.9,64.9,30.11,WNW,286,0.0,7.0,87,0.00,,,0.00,Wunderground v.1.15,2013-05-29 13:08:00,
2013-05-29 09:11:00,69.1,65.4,30.11,WNW,287,0.0,7.0,88,0.00,,,0.00,Wunderground v.1.15,2013-05-29 13:11:00,
2013-05-29 09:13:00,69.3,65.3,30.11,NW,309,0.0,7.0,87,0.00,,,0.00,Wunderground v.1.15,2013-05-29 13:13:00,
2013-05-29 09:14:00,69.3,65.3,30.11,NW,307,0.0,7.0,87,0.00,,,0.00,Wunderground v.1.15,2013-05-29 13:14:00,
2013-05-29 09:19:00,69.3,65.3,30.11,WNW,298,0.0,7.0,87,0.00,,,0.00,Wunderground v.1.15,2013-05-29 13:19:00,
2013-05-29 09:20:00,69.3,65.3,30.11,WNW,297,0.0,5.0,87,0.00,,,0.00,Wunderground v.1.15,2013-05-29 13:20:00,
2013-05-29 09:22:00,69.4,65.4,30.11,WNW,296,0.0,5.0,87,0.00,,,0.00,Wunderground v.1.15,2013-05-29 13:22:00,
2013-05-29 09:23:00,69.4,65.0,30.11,WNW,296,0.0,5.0,86,0.00,,,0.00,Wunderground v.1.15,2013-05-29 13:23:00,
2013-05-29 09:26:00,69.5,65.5,30.11,West,279,0.0,5.0,87,0.00,,,0.00,Wunderground v.1.15,2013-05-29 13:26:00,
2013-05-29 09:28:00,69.6,65.2,30.11,WNW,297,0.0,5.0,86,0.00,,,0.00,Wunderground v.1.15,2013-05-29 13:28:00,
2013-05-29 09:29:00,69.7,65.3,30.11,WNW,297,0.0,5.0,86,0.00,,,0.00,Wunderground v.1.15,2013-05-29 13:29:00,
2013-05-29 09:31:00,69.8,65.4,30.11,WNW,287,0.0,5.0,86,0.00,,,0.00,Wunderground v.1.15,2013-05-29 13:31:00,
2013-05-29 09:32:00,69.8,65.1,30.11,WNW,282,0.0,5.0,85,0.00,,,0.00,Wunderground v.1.15,2013-05-29 13:32:00,
2013-05-29 09:33:00,69.8,65.1,30.11,West,277,0.0,5.0,85,0.00,,,0.00,Wunderground v.1.15,2013-05-29 13:33:00,
2013-05-29 09:36:00,69.9,65.2,30.11,West,272,0.0,5.0,85,0.00,,,0.00,Wunderground v.1.15,2013-05-29 13:36:00,
2013-05-29 09:38:00,70.0,65.6,30.11,West,279,0.0,5.0,86,0.00,,,0.00,Wunderground v.1.15,2013-05-29 13:38:00,
2013-05-29 09:40:00,70.2,65.8,30.11,West,279,1.0,1.0,86,0.00,,,0.00,Wunderground v.1.15,2013-05-29 13:40:00,
2013-05-29 09:42:00,70.4,66.0,30.11,West,267,1.0,5.0,86,0.00,,,0.00,Wunderground v.1.15,2013-05-29 13:42:00,
2013-05-29 09:43:00,70.5,65.8,30.11,West,267,1.0,5.0,85,0.00,,,0.00,Wunderground v.1.15,2013-05-29 13:43:00,
2013-05-29 09:44:00,70.5,65.8,30.10,West,268,0.0,5.0,85,0.00,,,0.00,Wunderground v.1.15,2013-05-29 13:44:00,
2013-05-29 09:46:00,70.7,66.0,30.11,West,279,0.0,5.0,85,0.00,,,0.00,Wunderground v.1.15,2013-05-29 13:46:00,
2013-05-29 09:50:00,70.8,65.7,30.10,West,277,0.0,4.0,84,0.00,,,0.00,Wunderground v.1.15,2013-05-29 13:50:00,
2013-05-29 09:51:00,70.8,65.7,30.10,West,274,0.0,4.0,84,0.00,,,0.00,Wunderground v.1.15,2013-05-29 13:51:00,
2013-05-29 09:52:00,70.7,65.6,30.10,West,273,1.0,4.0,84,0.00,,,0.00,Wunderground v.1.15,2013-05-29 13:52:00,
2013-05-29 09:55:00,70.8,66.4,30.10,West,273,1.0,4.0,86,0.00,,,0.00,Wunderground v.1.15,2013-05-29 13:55:00,
2013-05-29 09:56:00,70.8,66.1,30.11,West,274,1.0,4.0,85,0.00,,,0.00,Wunderground v.1.15,2013-05-29 13:56:00,
2013-05-29 09:59:00,71.0,66.3,30.10,West,273,1.0,4.0,85,0.00,,,0.00,Wunderground v.1.15,2013-05-29 13:59:00,
2013-05-29 10:00:00,71.0,66.3,30.10,West,277,1.0,4.0,85,0.00,,,0.00,Wunderground v.1.15,2013-05-29 14:00:00,
2013-05-29 10:03:00,71.3,65.9,30.11,WNW,293,1.0,4.0,83,0.00,,,0.00,Wunderground v.1.15,2013-05-29 14:03:00,
2013-05-29 10:04:00,71.3,66.6,30.10,NW,304,1.0,4.0,85,0.00,,,0.00,Wunderground v.1.15,2013-05-29 14:04:00,
2013-05-29 10:07:00,71.6,66.5,30.11,WNW,284,1.0,4.0,84,0.00,,,0.00,Wunderground v.1.15,2013-05-29 14:07:00,
2013-05-29 10:08:00,71.7,66.9,30.11,WNW,294,1.0,4.0,85,0.00,,,0.00,Wunderground v.1.15,2013-05-29 14:08:00,
2013-05-29 10:13:00,72.1,66.6,30.11,WNW,288,1.0,5.0,83,0.00,,,0.00,Wunderground v.1.15,2013-05-29 14:13:00,
2013-05-29 10:14:00,72.2,67.1,30.11,WNW,295,0.0,5.0,84,0.00,,,0.00,Wunderground v.1.15,2013-05-29 14:14:00,
2013-05-29 10:16:00,72.4,66.9,30.11,WNW,285,0.0,5.0,83,0.00,,,0.00,Wunderground v.1.15,2013-05-29 14:16:00,
2013-05-29 10:17:00,72.4,66.9,30.10,WNW,288,0.0,5.0,83,0.00,,,0.00,Wunderground v.1.15,2013-05-29 14:17:00,
2013-05-29 10:21:00,72.9,67.4,30.11,NW,320,1.0,5.0,83,0.00,,,0.00,Wunderground v.1.15,2013-05-29 14:21:00,
2013-05-29 10:22:00,73.0,67.5,30.11,WNW,300,1.0,5.0,83,0.00,,,0.00,Wunderground v.1.15,2013-05-29 14:22:00,
2013-05-29 10:23:00,73.0,67.2,30.11,WNW,299,1.0,5.0,82,0.00,,,0.00,Wunderground v.1.15,2013-05-29 14:23:00,
2013-05-29 10:24:00,73.1,67.3,30.11,WNW,299,1.0,5.0,82,0.00,,,0.00,Wunderground v.1.15,2013-05-29 14:24:00,
2013-05-29 10:26:00,73.2,67.7,30.11,WNW,298,1.0,5.0,83,0.00,,,0.00,Wunderground v.1.15,2013-05-29 14:26:00,
2013-05-29 10:29:00,73.6,67.8,30.11,WNW,294,2.0,5.0,82,0.00,,,0.00,Wunderground v.1.15,2013-05-29 14:29:00,
2013-05-29 10:30:00,73.6,67.4,30.11,West,275,2.0,5.0,81,0.00,,,0.00,Wunderground v.1.15,2013-05-29 14:30:00,
2013-05-29 10:31:00,73.7,67.9,30.11,West,273,2.0,5.0,82,0.00,,,0.00,Wunderground v.1.15,2013-05-29 14:31:00,
2013-05-29 10:33:00,73.8,68.0,30.11,WNW,287,2.0,5.0,82,0.00,,,0.00,Wunderground v.1.15,2013-05-29 14:33:00,
2013-05-29 10:35:00,73.8,68.0,30.11,WNW,300,2.0,5.0,82,0.00,,,0.00,Wunderground v.1.15,2013-05-29 14:35:00,
2013-05-29 10:36:00,73.9,67.3,30.11,WNW,283,2.0,5.0,80,0.00,,,0.00,Wunderground v.1.15,2013-05-29 14:36:00,
2013-05-29 10:39:00,74.1,67.5,30.11,West,272,2.0,5.0,80,0.00,,,0.00,Wunderground v.1.15,2013-05-29 14:39:00,
2013-05-29 10:40:00,74.2,67.3,30.11,West,266,2.0,5.0,79,0.00,,,0.00,Wunderground v.1.15,2013-05-29 14:40:00,
2013-05-29 10:43:00,74.4,67.8,30.11,West,267,2.0,8.0,80,0.00,,,0.00,Wunderground v.1.15,2013-05-29 14:43:00,
2013-05-29 10:46:00,74.6,67.3,30.11,West,280,2.0,8.0,78,0.00,,,0.00,Wunderground v.1.15,2013-05-29 14:46:00,
2013-05-29 10:47:00,74.5,67.6,30.11,West,277,2.0,8.0,79,0.00,,,0.00,Wunderground v.1.15,2013-05-29 14:47:00,
2013-05-29 10:48:00,74.5,66.8,30.11,West,272,1.0,8.0,77,0.00,,,0.00,Wunderground v.1.15,2013-05-29 14:48:00,
2013-05-29 10:50:00,74.5,67.2,30.11,West,273,2.0,8.0,78,0.00,,,0.00,Wunderground v.1.15,2013-05-29 14:50:00,
2013-05-29 10:52:00,74.5,67.2,30.11,WNW,294,2.0,8.0,78,0.00,,,0.00,Wunderground v.1.15,2013-05-29 14:52:00,
2013-05-29 10:54:00,74.5,67.9,30.11,WNW,286,1.0,8.0,80,0.00,,,0.00,Wunderground v.1.15,2013-05-29 14:54:00,
2013-05-29 10:56:00,74.7,67.8,30.11,West,261,1.0,8.0,79,0.00,,,0.00,Wunderground v.1.15,2013-05-29 14:56:00,
2013-05-29 10:57:00,74.7,67.8,30.11,West,263,1.0,8.0,79,0.00,,,0.00,Wunderground v.1.15,2013-05-29 14:57:00,
2013-05-29 10:58:00,74.8,67.5,30.11,NW,319,2.0,8.0,78,0.00,,,0.00,Wunderground v.1.15,2013-05-29 14:58:00,
2013-05-29 11:00:00,74.9,67.9,30.11,WNW,287,1.0,8.0,79,0.00,,,0.00,Wunderground v.1.15,2013-05-29 15:00:00,
2013-05-29 11:01:00,75.0,68.0,30.11,WNW,288,1.0,8.0,79,0.00,,,0.00,Wunderground v.1.15,2013-05-29 15:01:00,
2013-05-29 11:04:00,75.1,67.0,30.11,WNW,295,2.0,8.0,76,0.00,,,0.00,Wunderground v.1.15,2013-05-29 15:04:00,
2013-05-29 11:05:00,75.1,67.4,30.11,NW,314,3.0,8.0,77,0.00,,,0.00,Wunderground v.1.15,2013-05-29 15:05:00,
2013-05-29 11:08:00,75.1,66.2,30.11,NW,307,3.0,8.0,74,0.00,,,0.00,Wunderground v.1.15,2013-05-29 15:08:00,
2013-05-29 11:10:00,75.1,66.6,30.11,WNW,290,3.0,3.0,75,0.00,,,0.00,Wunderground v.1.15,2013-05-29 15:10:00,
2013-05-29 11:11:00,75.2,66.7,30.11,West,265,3.0,8.0,75,0.00,,,0.00,Wunderground v.1.15,2013-05-29 15:11:00,
2013-05-29 11:16:00,75.1,66.2,30.11,NW,322,3.0,8.0,74,0.00,,,0.00,Wunderground v.1.15,2013-05-29 15:16:00,
2013-05-29 11:17:00,75.1,65.9,30.11,West,274,3.0,8.0,73,0.00,,,0.00,Wunderground v.1.15,2013-05-29 15:17:00,
2013-05-29 11:18:00,75.1,66.6,30.11,WNW,294,3.0,8.0,75,0.00,,,0.00,Wunderground v.1.15,2013-05-29 15:18:00,
2013-05-29 11:22:00,75.4,66.9,30.12,North,10,4.0,8.0,75,0.00,,,0.00,Wunderground v.1.15,2013-05-29 15:22:00,
2013-05-29 11:23:00,75.5,67.4,30.11,WNW,286,4.0,8.0,76,0.00,,,0.00,Wunderground v.1.15,2013-05-29 15:23:00,
2013-05-29 11:25:00,75.6,67.1,30.11,WNW,290,4.0,8.0,75,0.00,,,0.00,Wunderground v.1.15,2013-05-29 15:25:00,
2013-05-29 11:26:00,75.7,67.6,30.11,WNW,291,3.0,8.0,76,0.00,,,0.00,Wunderground v.1.15,2013-05-29 15:26:00,
2013-05-29 11:29:00,76.1,68.0,30.11,WNW,284,3.0,8.0,76,0.00,,,0.00,Wunderground v.1.15,2013-05-29 15:29:00,
2013-05-29 11:30:00,76.3,68.2,30.11,NW,306,3.0,8.0,76,0.00,,,0.00,Wunderground v.1.15,2013-05-29 15:30:00,
2013-05-29 11:36:00,76.5,67.2,30.12,WSW,250,4.0,8.0,73,0.00,,,0.00,Wunderground v.1.15,2013-05-29 15:36:00,
2013-05-29 11:37:00,76.5,67.6,30.11,WNW,298,4.0,8.0,74,0.00,,,0.00,Wunderground v.1.15,2013-05-29 15:37:00,
2013-05-29 11:38:00,76.4,66.7,30.11,WSW,251,4.0,8.0,72,0.00,,,0.00,Wunderground v.1.15,2013-05-29 15:38:00,
2013-05-29 11:44:00,76.0,66.7,30.12,WNW,287,4.0,10.0,73,0.00,,,0.00,Wunderground v.1.15,2013-05-29 15:44:00,
2013-05-29 11:45:00,76.0,66.7,30.12,WNW,284,4.0,10.0,73,0.00,,,0.00,Wunderground v.1.15,2013-05-29 15:45:00,
2013-05-29 11:46:00,76.0,66.7,30.12,West,273,4.0,10.0,73,0.00,,,0.00,Wunderground v.1.15,2013-05-29 15:46:00,
2013-05-29 11:49:00,76.1,67.6,30.12,NW,307,3.0,10.0,75,0.00,,,0.00,Wunderground v.1.15,2013-05-29 15:49:00,
2013-05-29 11:51:00,76.2,67.7,30.12,WNW,296,3.0,10.0,75,0.00,,,0.00,Wunderground v.1.15,2013-05-29 15:51:00,
2013-05-29 11:53:00,76.5,68.0,30.11,West,271,3.0,10.0,75,0.00,,,0.00,Wunderground v.1.15,2013-05-29 15:53:00,
2013-05-29 11:54:00,76.6,67.7,30.11,WNW,291,3.0,10.0,74,0.00,,,0.00,Wunderground v.1.15,2013-05-29 15:54:00,
2013-05-29 11:56:00,76.7,67.4,30.11,West,265,3.0,10.0,73,0.00,,,0.00,Wunderground v.1.15,2013-05-29 15:56:00,
2013-05-29 11:57:00,76.7,66.6,30.12,West,267,3.0,10.0,71,0.00,,,0.00,Wunderground v.1.15,2013-05-29 15:57:00,
2013-05-29 12:01:00,76.8,67.1,30.12,NW,306,3.0,10.0,72,0.00,,,0.00,Wunderground v.1.15,2013-05-29 16:01:00,
2013-05-29 12:02:00,76.9,67.6,30.12,WNW,284,3.0,10.0,73,0.00,,,0.00,Wunderground v.1.15,2013-05-29 16:02:00,
2013-05-29 12:05:00,77.1,68.2,30.11,West,275,3.0,10.0,74,0.00,,,0.00,Wunderground v.1.15,2013-05-29 16:05:00,
2013-05-29 12:08:00,77.3,67.2,30.12,WNW,283,3.0,10.0,71,0.00,,,0.00,Wunderground v.1.15,2013-05-29 16:08:00,
2013-05-29 12:11:00,77.3,67.2,30.12,West,262,3.0,10.0,71,0.00,,,0.00,Wunderground v.1.15,2013-05-29 16:11:00,
2013-05-29 12:12:00,77.3,67.6,30.12,WNW,300,3.0,10.0,72,0.00,,,0.00,Wunderground v.1.15,2013-05-29 16:12:00,
2013-05-29 12:13:00,77.4,67.7,30.12,West,267,4.0,10.0,72,0.00,,,0.00,Wunderground v.1.15,2013-05-29 16:13:00,
2013-05-29 12:14:00,77.5,67.4,30.12,WNW,283,4.0,10.0,71,0.00,,,0.00,Wunderground v.1.15,2013-05-29 16:14:00,
2013-05-29 12:17:00,77.4,67.7,30.12,WNW,297,4.0,10.0,72,0.00,,,0.00,Wunderground v.1.15,2013-05-29 16:17:00,
2013-05-29 12:19:00,77.5,67.4,30.11,NW,306,4.0,10.0,71,0.00,,,0.00,Wunderground v.1.15,2013-05-29 16:19:00,
2013-05-29 12:20:00,77.5,67.4,30.12,WSW,258,4.0,4.0,71,0.00,,,0.00,Wunderground v.1.15,2013-05-29 16:20:00,
2013-05-29 12:21:00,77.4,66.8,30.12,West,262,4.0,10.0,70,0.00,,,0.00,Wunderground v.1.15,2013-05-29 16:21:00,
2013-05-29 12:26:00,76.8,67.1,30.11,NW,319,3.0,10.0,72,0.00,,,0.00,Wunderground v.1.15,2013-05-29 16:26:00,
2013-05-29 12:27:00,76.7,67.0,30.11,North,355,3.0,10.0,72,0.00,,,0.00,Wunderground v.1.15,2013-05-29 16:27:00,
2013-05-29 12:28:00,76.7,67.4,30.11,NW,305,3.0,10.0,73,0.00,,,0.00,Wunderground v.1.15,2013-05-29 16:28:00,
2013-05-29 12:30:00,76.6,67.3,30.11,WNW,298,3.0,10.0,73,0.00,,,0.00,Wunderground v.1.15,2013-05-29 16:30:00,
2013-05-29 12:32:00,76.6,67.3,30.11,NW,323,3.0,10.0,73,0.00,,,0.00,Wunderground v.1.15,2013-05-29 16:32:00,
2013-05-29 12:33:00,76.6,66.9,30.11,WNW,286,3.0,10.0,72,0.00,,,0.00,Wunderground v.1.15,2013-05-29 16:33:00,
2013-05-29 12:36:00,76.6,67.7,30.11,NW,312,2.0,10.0,74,0.00,,,0.00,Wunderground v.1.15,2013-05-29 16:36:00,
2013-05-29 12:38:00,76.7,67.8,30.11,NW,313,2.0,10.0,74,0.00,,,0.00,Wunderground v.1.15,2013-05-29 16:38:00,
2013-05-29 12:40:00,76.8,68.3,30.11,WNW,302,2.0,10.0,75,0.00,,,0.00,Wunderground v.1.15,2013-05-29 16:40:00,
2013-05-29 12:42:00,76.9,68.0,30.11,WNW,294,2.0,10.0,74,0.00,,,0.00,Wunderground v.1.15,2013-05-29 16:42:00,
2013-05-29 12:43:00,77.0,68.1,30.11,West,272,2.0,10.0,74,0.00,,,0.00,Wunderground v.1.15,2013-05-29 16:43:00,
2013-05-29 12:45:00,76.9,67.6,30.11,WNW,292,2.0,10.0,73,0.00,,,0.00,Wunderground v.1.15,2013-05-29 16:45:00,
2013-05-29 12:47:00,76.9,68.0,30.11,NW,310,2.0,10.0,74,0.00,,,0.00,Wunderground v.1.15,2013-05-29 16:47:00,
2013-05-29 12:49:00,76.9,68.0,30.12,WNW,282,2.0,10.0,74,0.00,,,0.00,Wunderground v.1.15,2013-05-29 16:49:00,
2013-05-29 12:52:00,76.8,68.3,30.12,North,360,2.0,10.0,75,0.00,,,0.00,Wunderground v.1.15,2013-05-29 16:52:00,
2013-05-29 12:53:00,76.9,68.0,30.11,NW,309,2.0,10.0,74,0.00,,,0.00,Wunderground v.1.15,2013-05-29 16:53:00,
2013-05-29 12:56:00,76.8,67.9,30.11,WNW,296,2.0,10.0,74,0.00,,,0.00,Wunderground v.1.15,2013-05-29 16:56:00,
2013-05-29 12:59:00,77.0,68.1,30.11,WSW,257,1.0,10.0,74,0.00,,,0.00,Wunderground v.1.15,2013-05-29 16:59:00,
2013-05-29 13:04:00,77.2,68.7,30.11,WNW,299,1.0,10.0,75,0.00,,,0.00,Wunderground v.1.15,2013-05-29 17:04:00,
2013-05-29 13:05:00,77.2,67.9,30.11,West,273,2.0,10.0,73,0.00,,,0.00,Wunderground v.1.15,2013-05-29 17:05:00,
2013-05-29 13:10:00,77.0,68.1,30.11,NW,321,1.0,1.0,74,0.00,,,0.00,Wunderground v.1.15,2013-05-29 17:10:00,
2013-05-29 13:11:00,76.9,68.0,30.11,West,276,1.0,10.0,74,0.00,,,0.00,Wunderground v.1.15,2013-05-29 17:11:00,
2013-05-29 13:12:00,76.9,68.0,30.11,West,276,1.0,10.0,74,0.00,,,0.00,Wunderground v.1.15,2013-05-29 17:12:00,
2013-05-29 13:13:00,76.8,67.9,30.11,West,273,1.0,10.0,74,0.00,,,0.00,Wunderground v.1.15,2013-05-29 17:13:00,
2013-05-29 13:14:00,76.8,67.9,30.11,West,273,1.0,10.0,74,0.00,,,0.00,Wunderground v.1.15,2013-05-29 17:14:00,
2013-05-29 13:17:00,76.7,68.2,30.11,NW,313,1.0,10.0,75,0.00,,,0.00,Wunderground v.1.15,2013-05-29 17:17:00,
2013-05-29 13:19:00,77.0,68.9,30.11,WNW,296,0.0,10.0,76,0.00,,,0.00,Wunderground v.1.15,2013-05-29 17:19:00,
2013-05-29 13:20:00,77.2,69.4,30.10,WNW,295,0.0,10.0,77,0.00,,,0.00,Wunderground v.1.15,2013-05-29 17:20:00,
2013-05-29 13:25:00,78.2,68.8,30.10,WNW,292,0.0,10.0,73,0.00,,,0.00,Wunderground v.1.15,2013-05-29 17:25:00,
2013-05-29 13:26:00,78.4,69.0,30.10,WNW,291,0.0,10.0,73,0.00,,,0.00,Wunderground v.1.15,2013-05-29 17:26:00,
2013-05-29 13:29:00,78.9,69.9,30.10,WNW,284,0.0,10.0,74,0.00,,,0.00,Wunderground v.1.15,2013-05-29 17:29:00,
2013-05-29 13:31:00,79.4,70.8,30.10,West,275,1.0,10.0,75,0.00,,,0.00,Wunderground v.1.15,2013-05-29 17:31:00,
2013-05-29 13:32:00,79.5,69.7,30.10,West,274,0.0,10.0,72,0.00,,,0.00,Wunderground v.1.15,2013-05-29 17:32:00,
2013-05-29 13:33:00,79.6,69.4,30.10,WSW,250,0.0,10.0,71,0.00,,,0.00,Wunderground v.1.15,2013-05-29 17:33:00,
2013-05-29 13:35:00,79.7,69.0,30.10,West,260,0.0,10.0,70,0.00,,,0.00,Wunderground v.1.15,2013-05-29 17:35:00,
2013-05-29 13:36:00,79.7,69.5,30.10,West,263,0.0,10.0,71,0.00,,,0.00,Wunderground v.1.15,2013-05-29 17:36:00,
2013-05-29 13:39:00,79.7,69.9,30.10,West,264,1.0,10.0,72,0.00,,,0.00,Wunderground v.1.15,2013-05-29 17:39:00,
2013-05-29 13:40:00,79.8,70.0,30.10,WNW,290,1.0,10.0,72,0.00,,,0.00,Wunderground v.1.15,2013-05-29 17:40:00,
2013-05-29 13:42:00,79.9,69.2,30.10,West,275,2.0,10.0,70,0.00,,,0.00,Wunderground v.1.15,2013-05-29 17:42:00,
2013-05-29 13:45:00,80.0,69.7,30.10,West,276,2.0,10.0,71,0.00,,,0.00,Wunderground v.1.15,2013-05-29 17:45:00,
2013-05-29 13:47:00,80.0,68.9,30.10,West,265,2.0,10.0,69,0.00,,,0.00,Wunderground v.1.15,2013-05-29 17:47:00,
2013-05-29 13:48:00,80.0,68.9,30.10,West,279,2.0,10.0,69,0.00,,,0.00,Wunderground v.1.15,2013-05-29 17:48:00,
2013-05-29 13:50:00,80.0,69.7,30.10,WNW,288,2.0,2.0,71,0.00,,,0.00,Wunderground v.1.15,2013-05-29 17:50:00,
2013-05-29 13:53:00,80.1,69.0,30.10,WNW,287,2.0,6.0,69,0.00,,,0.00,Wunderground v.1.15,2013-05-29 17:53:00,
2013-05-29 13:54:00,80.2,69.9,30.10,WNW,287,2.0,6.0,71,0.00,,,0.00,Wunderground v.1.15,2013-05-29 17:54:00,
2013-05-29 13:56:00,80.3,68.8,30.09,WNW,296,2.0,7.0,68,0.00,,,0.00,Wunderground v.1.15,2013-05-29 17:56:00,
2013-05-29 13:58:00,80.2,67.8,30.10,WSW,249,2.0,7.0,66,0.00,,,0.00,Wunderground v.1.15,2013-05-29 17:58:00,
2013-05-29 14:02:00,80.4,68.0,30.10,West,269,3.0,6.0,66,0.00,,,0.00,Wunderground v.1.15,2013-05-29 18:02:00,
2013-05-29 14:03:00,80.5,68.5,30.10,West,271,3.0,6.0,67,0.00,,,0.00,Wunderground v.1.15,2013-05-29 18:03:00,
2013-05-29 14:04:00,80.5,68.5,30.10,NNW,340,3.0,6.0,67,0.00,,,0.00,Wunderground v.1.15,2013-05-29 18:04:00,
2013-05-29 14:06:00,80.7,68.3,30.10,NW,309,3.0,6.0,66,0.00,,,0.00,Wunderground v.1.15,2013-05-29 18:06:00,
2013-05-29 14:08:00,80.9,67.6,30.10,West,261,3.0,6.0,64,0.00,,,0.00,Wunderground v.1.15,2013-05-29 18:08:00,
2013-05-29 14:10:00,80.8,68.4,30.09,WNW,296,3.0,3.0,66,0.00,,,0.00,Wunderground v.1.15,2013-05-29 18:10:00,
2013-05-29 14:12:00,80.7,67.8,30.09,WNW,289,2.0,6.0,65,0.00,,,0.00,Wunderground v.1.15,2013-05-29 18:12:00,
2013-05-29 14:13:00,80.7,67.8,30.09,WNW,287,2.0,9.0,65,0.00,,,0.00,Wunderground v.1.15,2013-05-29 18:13:00,
2013-05-29 14:15:00,80.7,67.4,30.10,WSW,250,2.0,9.0,64,0.00,,,0.00,Wunderground v.1.15,2013-05-29 18:15:00,
2013-05-29 14:16:00,80.7,67.4,30.10,West,264,2.0,9.0,64,0.00,,,0.00,Wunderground v.1.15,2013-05-29 18:16:00,
2013-05-29 14:18:00,80.7,68.7,30.10,NW,307,2.0,9.0,67,0.00,,,0.00,Wunderground v.1.15,2013-05-29 18:18:00,
2013-05-29 14:19:00,80.7,68.3,30.09,WNW,302,2.0,9.0,66,0.00,,,0.00,Wunderground v.1.15,2013-05-29 18:19:00,
2013-05-29 14:22:00,80.9,68.0,30.09,NW,325,3.0,9.0,65,0.00,,,0.00,Wunderground v.1.15,2013-05-29 18:22:00,
2013-05-29 14:24:00,81.0,68.6,30.09,North,360,3.0,9.0,66,0.00,,,0.00,Wunderground v.1.15,2013-05-29 18:24:00,
2013-05-29 14:25:00,80.9,68.0,30.09,NW,307,3.0,9.0,65,0.00,,,0.00,Wunderground v.1.15,2013-05-29 18:25:00,
2013-05-29 14:27:00,80.7,66.9,30.09,WNW,283,4.0,9.0,63,0.00,,,0.00,Wunderground v.1.15,2013-05-29 18:27:00,
2013-05-29 14:29:00,80.6,67.7,30.09,WNW,288,4.0,9.0,65,0.00,,,0.00,Wunderground v.1.15,2013-05-29 18:29:00,
2013-05-29 14:30:00,80.6,67.3,30.10,WNW,293,4.0,4.0,64,0.00,,,0.00,Wunderground v.1.15,2013-05-29 18:30:00,
2013-05-29 14:33:00,80.5,66.7,30.10,WNW,289,4.0,9.0,63,0.00,,,0.00,Wunderground v.1.15,2013-05-29 18:33:00,
2013-05-29 14:34:00,80.4,66.6,30.10,NW,313,4.0,9.0,63,0.00,,,0.00,Wunderground v.1.15,2013-05-29 18:34:00,
2013-05-29 14:35:00,80.3,66.1,30.09,WSW,256,4.0,9.0,62,0.00,,,0.00,Wunderground v.1.15,2013-05-29 18:35:00,
2013-05-29 14:37:00,80.2,67.8,30.09,NNW,331,4.0,9.0,66,0.00,,,0.00,Wunderground v.1.15,2013-05-29 18:37:00,
2013-05-29 14:38:00,80.3,67.9,30.09,WNW,298,4.0,9.0,66,0.00,,,0.00,Wunderground v.1.15,2013-05-29 18:38:00,
2013-05-29 14:41:00,80.6,66.8,30.09,West,260,4.0,9.0,63,0.00,,,0.00,Wunderground v.1.15,2013-05-29 18:41:00,
2013-05-29 14:44:00,80.7,66.9,30.10,West,275,4.0,14.0,63,0.00,,,0.00,Wunderground v.1.15,2013-05-29 18:44:00,
2013-05-29 14:45:00,80.7,66.9,30.10,WNW,285,4.0,14.0,63,0.00,,,0.00,Wunderground v.1.15,2013-05-29 18:45:00,
2013-05-29 14:50:00,80.1,66.8,30.09,SW,233,3.0,3.0,64,0.00,,,0.00,Wunderground v.1.15,2013-05-29 18:50:00,
2013-05-29 14:51:00,79.9,66.6,30.09,WSW,254,3.0,14.0,64,0.00,,,0.00,Wunderground v.1.15,2013-05-29 18:51:00,
2013-05-29 14:52:00,79.8,66.5,30.09,WNW,298,3.0,14.0,64,0.00,,,0.00,Wunderground v.1.15,2013-05-29 18:52:00,
2013-05-29 14:53:00,79.6,67.2,30.09,North,355,3.0,14.0,66,0.00,,,0.00,Wunderground v.1.15,2013-05-29 18:53:00,
2013-05-29 14:55:00,79.7,67.8,30.09,WNW,302,2.0,14.0,67,0.00,,,0.00,Wunderground v.1.15,2013-05-29 18:55:00,
2013-05-29 14:56:00,79.8,67.4,30.09,West,277,2.0,14.0,66,0.00,,,0.00,Wunderground v.1.15,2013-05-29 18:56:00,
2013-05-29 14:57:00,79.9,67.5,30.09,West,273,2.0,14.0,66,0.00,,,0.00,Wunderground v.1.15,2013-05-29 18:57:00,
2013-05-29 14:59:00,80.3,67.9,30.09,WNW,297,1.0,14.0,66,0.00,,,0.00,Wunderground v.1.15,2013-05-29 18:59:00,
2013-05-29 15:00:00,80.5,67.6,30.09,WNW,292,1.0,14.0,65,0.00,,,0.00,Wunderground v.1.15,2013-05-29 19:00:00,
2013-05-29 15:05:00,81.2,67.4,30.09,West,275,2.0,14.0,63,0.00,,,0.00,Wunderground v.1.15,2013-05-29 19:05:00,
2013-05-29 15:06:00,81.3,68.4,30.09,West,275,2.0,14.0,65,0.00,,,0.00,Wunderground v.1.15,2013-05-29 19:06:00,
2013-05-29 15:08:00,81.7,68.3,30.09,WNW,288,2.0,14.0,64,0.00,,,0.00,Wunderground v.1.15,2013-05-29 19:08:00,
2013-05-29 15:10:00,81.9,68.5,30.09,WNW,293,2.0,14.0,64,0.00,,,0.00,Wunderground v.1.15,2013-05-29 19:10:00,
2013-05-29 15:13:00,81.9,67.1,30.09,West,268,2.0,14.0,61,0.00,,,0.00,Wunderground v.1.15,2013-05-29 19:13:00,
2013-05-29 15:15:00,81.9,67.6,30.09,WNW,287,2.0,14.0,62,0.00,,,0.00,Wunderground v.1.15,2013-05-29 19:15:00,
2013-05-29 15:16:00,81.8,68.0,30.09,West,270,2.0,14.0,63,0.00,,,0.00,Wunderground v.1.15,2013-05-29 19:16:00,
2013-05-29 15:17:00,81.8,68.0,30.09,West,271,2.0,14.0,63,0.00,,,0.00,Wunderground v.1.15,2013-05-29 19:17:00,
2013-05-29 15:21:00,81.9,68.1,30.09,SSW,192,2.0,9.0,63,0.00,,,0.00,Wunderground v.1.15,2013-05-29 19:21:00,
2013-05-29 15:22:00,81.9,68.5,30.09,WSW,253,2.0,9.0,64,0.00,,,0.00,Wunderground v.1.15,2013-05-29 19:22:00,
2013-05-29 15:23:00,82.0,68.6,30.09,West,263,1.0,9.0,64,0.00,,,0.00,Wunderground v.1.15,2013-05-29 19:23:00,
2013-05-29 15:24:00,82.0,69.1,30.09,SW,226,1.0,9.0,65,0.00,,,0.00,Wunderground v.1.15,2013-05-29 19:24:00,
2013-05-29 15:27:00,82.0,68.2,30.09,West,259,2.0,9.0,63,0.00,,,0.00,Wunderground v.1.15,2013-05-29 19:27:00,
2013-05-29 15:29:00,81.9,68.1,30.09,NW,325,2.0,9.0,63,0.00,,,0.00,Wunderground v.1.15,2013-05-29 19:29:00,
2013-05-29 15:32:00,81.9,68.5,30.09,WNW,286,2.0,9.0,64,0.00,,,0.00,Wunderground v.1.15,2013-05-29 19:32:00,
2013-05-29 15:33:00,81.8,68.4,30.09,WNW,286,2.0,9.0,64,0.00,,,0.00,Wunderground v.1.15,2013-05-29 19:33:00,
2013-05-29 15:34:00,81.8,68.0,30.09,WNW,286,2.0,9.0,63,0.00,,,0.00,Wunderground v.1.15,2013-05-29 19:34:00,
2013-05-29 15:36:00,81.9,68.5,30.09,NW,312,1.0,9.0,64,0.00,,,0.00,Wunderground v.1.15,2013-05-29 19:36:00,
2013-05-29 15:38:00,81.9,69.0,30.09,NW,306,1.0,9.0,65,0.00,,,0.00,Wunderground v.1.15,2013-05-29 19:38:00,
2013-05-29 15:39:00,81.9,68.5,30.09,NW,306,1.0,9.0,64,0.00,,,0.00,Wunderground v.1.15,2013-05-29 19:39:00,
2013-05-29 15:40:00,82.0,69.1,30.09,WSW,240,1.0,1.0,65,0.00,,,0.00,Wunderground v.1.15,2013-05-29 19:40:00,
2013-05-29 15:41:00,81.9,69.0,30.09,WSW,240,1.0,9.0,65,0.00,,,0.00,Wunderground v.1.15,2013-05-29 19:41:00,
2013-05-29 15:42:00,81.9,68.5,30.09,WSW,240,0.0,9.0,64,0.00,,,0.00,Wunderground v.1.15,2013-05-29 19:42:00,
2013-05-29 15:47:00,81.6,68.7,30.09,WSW,250,0.0,10.0,65,0.00,,,0.00,Wunderground v.1.15,2013-05-29 19:47:00,
2013-05-29 15:48:00,81.4,68.5,30.09,WSW,250,0.0,10.0,65,0.00,,,0.00,Wunderground v.1.15,2013-05-29 19:48:00,
2013-05-29 15:49:00,81.4,68.5,30.09,WSW,250,0.0,10.0,65,0.00,,,0.00,Wunderground v.1.15,2013-05-29 19:49:00,
2013-05-29 15:53:00,81.4,68.5,30.09,WNW,288,0.0,10.0,65,0.00,,,0.00,Wunderground v.1.15,2013-05-29 19:53:00,
2013-05-29 15:55:00,81.4,68.5,30.09,WNW,285,0.0,10.0,65,0.00,,,0.00,Wunderground v.1.15,2013-05-29 19:55:00,
2013-05-29 15:57:00,81.6,69.1,30.09,West,276,0.0,10.0,66,0.00,,,0.00,Wunderground v.1.15,2013-05-29 19:57:00,
2013-05-29 15:59:00,81.6,68.7,30.09,WNW,287,1.0,10.0,65,0.00,,,0.00,Wunderground v.1.15,2013-05-29 19:59:00,
2013-05-29 16:00:00,81.6,67.8,30.09,West,278,2.0,2.0,63,0.00,,,0.00,Wunderground v.1.15,2013-05-29 20:00:00,
2013-05-29 16:02:00,81.6,67.3,30.09,West,273,2.0,10.0,62,0.00,,,0.00,Wunderground v.1.15,2013-05-29 20:02:00,
2013-05-29 16:03:00,81.5,67.7,30.09,West,271,2.0,10.0,63,0.00,,,0.00,Wunderground v.1.15,2013-05-29 20:03:00,
2013-05-29 16:04:00,81.4,67.6,30.09,West,271,2.0,10.0,63,0.00,,,0.00,Wunderground v.1.15,2013-05-29 20:04:00,
2013-05-29 16:06:00,81.0,67.2,30.09,West,271,2.0,10.0,63,0.00,,,0.00,Wunderground v.1.15,2013-05-29 20:06:00,
2013-05-29 16:07:00,80.9,67.6,30.09,West,281,2.0,10.0,64,0.00,,,0.00,Wunderground v.1.15,2013-05-29 20:07:00,
2013-05-29 16:12:00,80.4,67.6,30.08,WNW,288,0.0,10.0,65,0.00,,,0.00,Wunderground v.1.15,2013-05-29 20:12:00,
2013-05-29 16:13:00,80.5,68.1,30.08,WNW,287,0.0,10.0,66,0.00,,,0.00,Wunderground v.1.15,2013-05-29 20:13:00,
2013-05-29 16:14:00,80.6,67.7,30.08,WNW,288,0.0,10.0,65,0.00,,,0.00,Wunderground v.1.15,2013-05-29 20:14:00,
2013-05-29 16:17:00,80.9,68.0,30.08,West,264,0.0,10.0,65,0.00,,,0.00,Wunderground v.1.15,2013-05-29 20:17:00,
2013-05-29 16:19:00,81.0,68.1,30.08,West,265,0.0,10.0,65,0.00,,,0.00,Wunderground v.1.15,2013-05-29 20:19:00,
2013-05-29 16:20:00,81.1,68.7,30.08,West,272,0.0,7.0,66,0.00,,,0.00,Wunderground v.1.15,2013-05-29 20:20:00,
2013-05-29 16:22:00,81.4,68.1,30.08,SW,219,0.0,7.0,64,0.00,,,0.00,Wunderground v.1.15,2013-05-29 20:22:00,
2013-05-29 16:24:00,81.4,67.6,30.08,WNW,295,0.0,7.0,63,0.00,,,0.00,Wunderground v.1.15,2013-05-29 20:24:00,
2013-05-29 16:25:00,81.4,68.1,30.08,West,264,1.0,7.0,64,0.00,,,0.00,Wunderground v.1.15,2013-05-29 20:25:00,
2013-05-29 16:26:00,81.3,67.5,30.08,WNW,301,1.0,7.0,63,0.00,,,0.00,Wunderground v.1.15,2013-05-29 20:26:00,
2013-05-29 16:29:00,81.4,68.1,30.08,NW,325,1.0,7.0,64,0.00,,,0.00,Wunderground v.1.15,2013-05-29 20:29:00,
2013-05-29 16:30:00,81.4,68.1,30.08,NW,325,1.0,7.0,64,0.00,,,0.00,Wunderground v.1.15,2013-05-29 20:30:00,
2013-05-29 16:31:00,81.4,68.9,30.08,NW,317,1.0,7.0,66,0.00,,,0.00,Wunderground v.1.15,2013-05-29 20:31:00,
2013-05-29 16:33:00,81.5,69.0,30.08,WNW,287,1.0,7.0,66,0.00,,,0.00,Wunderground v.1.15,2013-05-29 20:33:00,
2013-05-29 16:35:00,81.6,68.7,30.08,North,360,1.0,7.0,65,0.00,,,0.00,Wunderground v.1.15,2013-05-29 20:35:00,
2013-05-29 16:38:00,82.0,68.6,30.08,West,278,1.0,7.0,64,0.00,,,0.00,Wunderground v.1.15,2013-05-29 20:38:00,
2013-05-29 16:39:00,82.1,68.7,30.08,NNW,331,1.0,7.0,64,0.00,,,0.00,Wunderground v.1.15,2013-05-29 20:39:00,
2013-05-29 16:40:00,82.1,68.3,30.08,West,270,1.0,1.0,63,0.00,,,0.00,Wunderground v.1.15,2013-05-29 20:40:00,
2013-05-29 16:41:00,82.2,67.9,30.08,NW,309,1.0,7.0,62,0.00,,,0.00,Wunderground v.1.15,2013-05-29 20:41:00,
2013-05-29 16:42:00,82.3,68.9,30.08,WNW,284,1.0,7.0,64,0.00,,,0.00,Wunderground v.1.15,2013-05-29 20:42:00,
2013-05-29 16:45:00,82.3,68.4,30.07,WNW,287,1.0,7.0,63,0.00,,,0.00,Wunderground v.1.15,2013-05-29 20:45:00,
2013-05-29 16:47:00,82.3,68.0,30.08,NW,309,1.0,7.0,62,0.00,,,0.00,Wunderground v.1.15,2013-05-29 20:47:00,
2013-05-29 16:48:00,82.3,68.0,30.08,WNW,298,1.0,7.0,62,0.00,,,0.00,Wunderground v.1.15,2013-05-29 20:48:00,
2013-05-29 16:53:00,82.0,67.7,30.07,NNW,334,1.0,6.0,62,0.00,,,0.00,Wunderground v.1.15,2013-05-29 20:53:00,
2013-05-29 16:56:00,81.9,67.6,30.07,WNW,291,1.0,6.0,62,0.00,,,0.00,Wunderground v.1.15,2013-05-29 20:56:00,
2013-05-29 16:58:00,81.9,67.6,30.07,WNW,291,1.0,6.0,62,0.00,,,0.00,Wunderground v.1.15,2013-05-29 20:58:00,
2013-05-29 16:59:00,81.9,68.1,30.07,WNW,293,0.0,6.0,63,0.00,,,0.00,Wunderground v.1.15,2013-05-29 20:59:00,
2013-05-29 17:00:00,82.0,68.6,30.07,WNW,293,0.0,6.0,64,0.00,,,0.00,Wunderground v.1.15,2013-05-29 21:00:00,
2013-05-29 17:01:00,82.0,68.2,30.07,WNW,287,0.0,6.0,63,0.00,,,0.00,Wunderground v.1.15,2013-05-29 21:01:00,
2013-05-29 17:03:00,82.1,67.3,30.07,West,281,0.0,6.0,61,0.00,,,0.00,Wunderground v.1.15,2013-05-29 21:03:00,
2013-05-29 17:04:00,82.1,67.3,30.07,West,281,0.0,6.0,61,0.00,,,0.00,Wunderground v.1.15,2013-05-29 21:04:00,
2013-05-29 17:07:00,82.3,68.0,30.07,West,273,0.0,6.0,62,0.00,,,0.00,Wunderground v.1.15,2013-05-29 21:07:00,
2013-05-29 17:09:00,82.4,67.1,30.07,West,271,0.0,6.0,60,0.00,,,0.00,Wunderground v.1.15,2013-05-29 21:09:00,
2013-05-29 17:12:00,82.5,67.2,30.07,WNW,296,1.0,6.0,60,0.00,,,0.00,Wunderground v.1.15,2013-05-29 21:12:00,
2013-05-29 17:13:00,82.5,67.2,30.07,WNW,295,1.0,8.0,60,0.00,,,0.00,Wunderground v.1.15,2013-05-29 21:13:00,
2013-05-29 17:14:00,82.5,67.2,30.07,WNW,292,1.0,8.0,60,0.00,,,0.00,Wunderground v.1.15,2013-05-29 21:14:00,
2013-05-29 17:16:00,82.6,67.3,30.07,SW,217,1.0,8.0,60,0.00,,,0.00,Wunderground v.1.15,2013-05-29 21:16:00,
2013-05-29 17:18:00,82.7,67.9,30.07,NW,323,1.0,8.0,61,0.00,,,0.00,Wunderground v.1.15,2013-05-29 21:18:00,
2013-05-29 17:19:00,82.7,68.4,30.07,NW,317,1.0,8.0,62,0.00,,,0.00,Wunderground v.1.15,2013-05-29 21:19:00,
2013-05-29 17:23:00,82.7,67.4,30.07,NW,318,1.0,8.0,60,0.00,,,0.00,Wunderground v.1.15,2013-05-29 21:23:00,
2013-05-29 17:24:00,82.7,66.9,30.07,NW,314,1.0,8.0,59,0.00,,,0.00,Wunderground v.1.15,2013-05-29 21:24:00,
2013-05-29 17:25:00,82.7,67.4,30.07,WNW,286,1.0,8.0,60,0.00,,,0.00,Wunderground v.1.15,2013-05-29 21:25:00,
2013-05-29 17:26:00,82.7,67.4,30.07,WNW,285,1.0,8.0,60,0.00,,,0.00,Wunderground v.1.15,2013-05-29 21:26:00,
2013-05-29 17:28:00,82.8,66.5,30.07,North,5,1.0,8.0,58,0.00,,,0.00,Wunderground v.1.15,2013-05-29 21:28:00,
2013-05-29 17:30:00,82.7,65.4,30.07,WNW,284,1.0,8.0,56,0.00,,,0.00,Wunderground v.1.15,2013-05-29 21:30:00,
2013-05-29 17:32:00,82.8,66.0,30.07,NW,307,1.0,8.0,57,0.00,,,0.00,Wunderground v.1.15,2013-05-29 21:32:00,
2013-05-29 17:34:00,82.8,66.5,30.07,WNW,299,1.0,8.0,58,0.00,,,0.00,Wunderground v.1.15,2013-05-29 21:34:00,
2013-05-29 17:35:00,82.7,65.9,30.07,SW,221,1.0,8.0,57,0.00,,,0.00,Wunderground v.1.15,2013-05-29 21:35:00,
2013-05-29 17:37:00,82.7,66.9,30.07,WNW,290,1.0,8.0,59,0.00,,,0.00,Wunderground v.1.15,2013-05-29 21:37:00,
2013-05-29 17:41:00,82.6,65.3,30.07,NNW,332,1.0,8.0,56,0.00,,,0.00,Wunderground v.1.15,2013-05-29 21:41:00,
2013-05-29 17:43:00,82.6,65.8,30.07,NW,316,0.0,8.0,57,0.00,,,0.00,Wunderground v.1.15,2013-05-29 21:43:00,
2013-05-29 17:44:00,82.6,65.8,30.07,NW,309,0.0,8.0,57,0.00,,,0.00,Wunderground v.1.15,2013-05-29 21:44:00,
2013-05-29 17:46:00,82.7,66.4,30.07,WSW,251,0.0,8.0,58,0.00,,,0.00,Wunderground v.1.15,2013-05-29 21:46:00,
2013-05-29 17:47:00,82.7,65.9,30.07,WSW,251,0.0,8.0,57,0.00,,,0.00,Wunderground v.1.15,2013-05-29 21:47:00,
2013-05-29 17:49:00,82.8,66.5,30.07,WSW,250,0.0,8.0,58,0.00,,,0.00,Wunderground v.1.15,2013-05-29 21:49:00,
2013-05-29 17:50:00,82.8,66.0,30.07,WSW,252,0.0,6.0,57,0.00,,,0.00,Wunderground v.1.15,2013-05-29 21:50:00,
2013-05-29 17:51:00,82.8,66.0,30.07,SW,217,0.0,6.0,57,0.00,,,0.00,Wunderground v.1.15,2013-05-29 21:51:00,
2013-05-29 17:53:00,82.7,65.9,30.07,WSW,251,0.0,6.0,57,0.00,,,0.00,Wunderground v.1.15,2013-05-29 21:53:00,
2013-05-29 17:58:00,82.4,65.6,30.07,WSW,249,1.0,6.0,57,0.00,,,0.00,Wunderground v.1.15,2013-05-29 21:58:00,
2013-05-29 17:59:00,82.4,65.6,30.07,WSW,250,1.0,6.0,57,0.00,,,0.00,Wunderground v.1.15,2013-05-29 21:59:00,
2013-05-29 18:00:00,82.4,66.6,30.07,WSW,249,1.0,1.0,59,0.00,,,0.00,Wunderground v.1.15,2013-05-29 22:00:00,
2013-05-29 18:02:00,82.4,66.6,30.07,WSW,250,1.0,6.0,59,0.00,,,0.00,Wunderground v.1.15,2013-05-29 22:02:00,
2013-05-29 18:04:00,82.5,66.2,30.07,WSW,250,1.0,6.0,58,0.00,,,0.00,Wunderground v.1.15,2013-05-29 22:04:00,
2013-05-29 18:06:00,82.4,66.1,30.07,WSW,250,0.0,6.0,58,0.00,,,0.00,Wunderground v.1.15,2013-05-29 22:06:00,
2013-05-29 18:07:00,82.4,66.1,30.07,WSW,250,0.0,6.0,58,0.00,,,0.00,Wunderground v.1.15,2013-05-29 22:07:00,
2013-05-29 18:08:00,82.4,66.1,30.07,WSW,248,0.0,6.0,58,0.00,,,0.00,Wunderground v.1.15,2013-05-29 22:08:00,
2013-05-29 18:10:00,82.3,66.0,30.07,West,281,0.0,6.0,58,0.00,,,0.00,Wunderground v.1.15,2013-05-29 22:10:00,
2013-05-29 18:14:00,82.0,65.8,30.07,WSW,247,0.0,7.0,58,0.00,,,0.00,Wunderground v.1.15,2013-05-29 22:14:00,
2013-05-29 18:15:00,82.0,65.3,30.07,WSW,246,0.0,7.0,57,0.00,,,0.00,Wunderground v.1.15,2013-05-29 22:15:00,
2013-05-29 18:17:00,81.8,65.1,30.07,WSW,246,0.0,7.0,57,0.00,,,0.00,Wunderground v.1.15,2013-05-29 22:17:00,
2013-05-29 18:20:00,81.6,65.4,30.07,WSW,247,0.0,7.0,58,0.00,,,0.00,Wunderground v.1.15,2013-05-29 22:20:00,
2013-05-29 18:21:00,81.6,65.9,30.07,WSW,247,0.0,7.0,59,0.00,,,0.00,Wunderground v.1.15,2013-05-29 22:21:00,
2013-05-29 18:22:00,81.7,66.0,30.07,WSW,247,0.0,7.0,59,0.00,,,0.00,Wunderground v.1.15,2013-05-29 22:22:00,
2013-05-29 18:24:00,81.7,65.5,30.07,West,278,0.0,7.0,58,0.00,,,0.00,Wunderground v.1.15,2013-05-29 22:24:00,
2013-05-29 18:27:00,81.6,66.4,30.07,NW,311,0.0,7.0,60,0.00,,,0.00,Wunderground v.1.15,2013-05-29 22:27:00,
2013-05-29 18:29:00,81.6,66.4,30.07,SW,225,0.0,7.0,60,0.00,,,0.00,Wunderground v.1.15,2013-05-29 22:29:00,
2013-05-29 18:30:00,81.5,66.3,30.07,SW,225,0.0,7.0,60,0.00,,,0.00,Wunderground v.1.15,2013-05-29 22:30:00,
2013-05-29 18:33:00,81.4,67.1,30.07,West,273,0.0,7.0,62,0.00,,,0.00,Wunderground v.1.15,2013-05-29 22:33:00,
2013-05-29 18:34:00,81.3,67.0,30.07,NW,324,0.0,7.0,62,0.00,,,0.00,Wunderground v.1.15,2013-05-29 22:34:00,
2013-05-29 18:35:00,81.2,66.9,30.07,NW,306,0.0,7.0,62,0.00,,,0.00,Wunderground v.1.15,2013-05-29 22:35:00,
2013-05-29 18:40:00,81.0,67.2,30.07,NNW,346,0.0,7.0,63,0.00,,,0.00,Wunderground v.1.15,2013-05-29 22:40:00,
2013-05-29 18:41:00,81.0,67.7,30.07,NW,311,0.0,7.0,64,0.00,,,0.00,Wunderground v.1.15,2013-05-29 22:41:00,
2013-05-29 18:46:00,80.8,67.9,30.07,WNW,284,0.0,7.0,65,0.00,,,0.00,Wunderground v.1.15,2013-05-29 22:46:00,
2013-05-29 18:47:00,80.7,67.4,30.07,WNW,285,0.0,7.0,64,0.00,,,0.00,Wunderground v.1.15,2013-05-29 22:47:00,
2013-05-29 18:48:00,80.7,67.4,30.07,WNW,284,0.0,7.0,64,0.00,,,0.00,Wunderground v.1.15,2013-05-29 22:48:00,
2013-05-29 18:52:00,80.6,67.3,30.07,NNW,341,0.0,4.0,64,0.00,,,0.00,Wunderground v.1.15,2013-05-29 22:52:00,
2013-05-29 18:54:00,80.5,67.6,30.07,NNW,327,0.0,4.0,65,0.00,,,0.00,Wunderground v.1.15,2013-05-29 22:54:00,
2013-05-29 18:55:00,80.5,67.6,30.07,NNW,327,0.0,4.0,65,0.00,,,0.00,Wunderground v.1.15,2013-05-29 22:55:00,
2013-05-29 18:58:00,80.5,67.6,30.07,NNW,327,0.0,4.0,65,0.00,,,0.00,Wunderground v.1.15,2013-05-29 22:58:00,
2013-05-29 19:01:00,80.5,67.6,30.07,NW,325,0.0,4.0,65,0.00,,,0.00,Wunderground v.1.15,2013-05-29 23:01:00,
2013-05-29 19:02:00,80.5,67.6,30.07,NW,324,0.0,4.0,65,0.00,,,0.00,Wunderground v.1.15,2013-05-29 23:02:00,
2013-05-29 19:03:00,80.4,67.6,30.07,NW,306,0.0,4.0,65,0.00,,,0.00,Wunderground v.1.15,2013-05-29 23:03:00,
2013-05-29 19:07:00,80.2,67.8,30.07,WNW,298,0.0,4.0,66,0.00,,,0.00,Wunderground v.1.15,2013-05-29 23:07:00,
2013-05-29 19:09:00,80.1,68.2,30.07,WNW,296,0.0,4.0,67,0.00,,,0.00,Wunderground v.1.15,2013-05-29 23:09:00,
2013-05-29 19:10:00,80.0,67.6,30.07,WNW,296,0.0,4.0,66,0.00,,,0.00,Wunderground v.1.15,2013-05-29 23:10:00,
2013-05-29 19:13:00,79.8,67.4,30.07,WNW,296,0.0,4.0,66,0.00,,,0.00,Wunderground v.1.15,2013-05-29 23:13:00,
2013-05-29 19:14:00,79.8,67.4,30.07,NW,315,0.0,4.0,66,0.00,,,0.00,Wunderground v.1.15,2013-05-29 23:14:00,
2013-05-29 19:16:00,79.7,67.8,30.07,NW,315,0.0,4.0,67,0.00,,,0.00,Wunderground v.1.15,2013-05-29 23:16:00,
2013-05-29 19:19:00,79.6,67.7,30.07,NW,315,0.0,4.0,67,0.00,,,0.00,Wunderground v.1.15,2013-05-29 23:19:00,
2013-05-29 19:21:00,79.6,67.7,30.07,NW,315,0.0,4.0,67,0.00,,,0.00,Wunderground v.1.15,2013-05-29 23:21:00,
2013-05-29 19:24:00,79.5,68.0,30.07,NW,311,0.0,4.0,68,0.00,,,0.00,Wunderground v.1.15,2013-05-29 23:24:00,
2013-05-29 19:26:00,79.4,67.5,30.07,NW,313,0.0,4.0,67,0.00,,,0.00,Wunderground v.1.15,2013-05-29 23:26:00,
2013-05-29 19:28:00,79.3,67.8,30.07,NW,313,0.0,4.0,68,0.00,,,0.00,Wunderground v.1.15,2013-05-29 23:28:00,
2013-05-29 19:29:00,79.3,67.8,30.07,NW,313,0.0,4.0,68,0.00,,,0.00,Wunderground v.1.15,2013-05-29 23:29:00,
2013-05-29 19:32:00,79.1,67.6,30.07,NW,313,0.0,4.0,68,0.00,,,0.00,Wunderground v.1.15,2013-05-29 23:32:00,
2013-05-29 19:33:00,78.9,67.9,30.07,NNW,333,0.0,4.0,69,0.00,,,0.00,Wunderground v.1.15,2013-05-29 23:33:00,
2013-05-29 19:34:00,78.9,67.9,30.07,NNW,333,0.0,4.0,69,0.00,,,0.00,Wunderground v.1.15,2013-05-29 23:34:00,
2013-05-29 19:35:00,78.8,67.8,30.07,NNW,333,0.0,4.0,69,0.00,,,0.00,Wunderground v.1.15,2013-05-29 23:35:00,
2013-05-29 19:36:00,78.7,67.7,30.07,NNW,333,0.0,4.0,69,0.00,,,0.00,Wunderground v.1.15,2013-05-29 23:36:00,
2013-05-29 19:39:00,78.6,67.6,30.07,NNW,333,0.0,4.0,69,0.00,,,0.00,Wunderground v.1.15,2013-05-29 23:39:00,
2013-05-29 19:40:00,78.4,67.4,30.07,NNW,333,0.0,4.0,69,0.00,,,0.00,Wunderground v.1.15,2013-05-29 23:40:00,
2013-05-29 19:41:00,78.3,67.3,30.07,NNW,333,0.0,4.0,69,0.00,,,0.00,Wunderground v.1.15,2013-05-29 23:41:00,
2013-05-29 19:43:00,78.2,67.2,30.07,NNW,333,0.0,5.0,69,0.00,,,0.00,Wunderground v.1.15,2013-05-29 23:43:00,
2013-05-29 19:46:00,78.0,67.4,30.07,NNW,333,0.0,5.0,70,0.00,,,0.00,Wunderground v.1.15,2013-05-29 23:46:00,
2013-05-29 19:48:00,77.9,67.3,30.07,NNW,333,0.0,5.0,70,0.00,,,0.00,Wunderground v.1.15,2013-05-29 23:48:00,
2013-05-29 19:49:00,77.8,67.2,30.07,NNW,334,0.0,5.0,70,0.00,,,0.00,Wunderground v.1.15,2013-05-29 23:49:00,
2013-05-29 19:51:00,77.7,67.1,30.07,NNW,334,0.0,5.0,70,0.00,,,0.00,Wunderground v.1.15,2013-05-29 23:51:00,
2013-05-29 19:55:00,77.6,67.4,30.07,NNW,334,0.0,5.0,71,0.00,,,0.00,Wunderground v.1.15,2013-05-29 23:55:00,
2013-05-29 19:57:00,77.5,67.4,30.07,NNW,334,0.0,5.0,71,0.00,,,0.00,Wunderground v.1.15,2013-05-29 23:57:00,
2013-05-29 19:58:00,77.4,67.3,30.07,NNW,334,0.0,5.0,71,0.00,,,0.00,Wunderground v.1.15,2013-05-29 23:58:00,
2013-05-29 19:59:00,77.4,67.3,30.07,NNW,334,0.0,5.0,71,0.00,,,0.00,Wunderground v.1.15,2013-05-29 23:59:00,
2013-05-29 20:02:00,77.3,67.2,30.07,NNW,334,0.0,5.0,71,0.00,,,0.00,Wunderground v.1.15,2013-05-30 00:02:00,
2013-05-29 20:03:00,77.2,67.5,30.07,NNW,334,0.0,5.0,72,0.00,,,0.00,Wunderground v.1.15,2013-05-30 00:03:00,
2013-05-29 20:05:00,77.1,67.4,30.07,NNW,334,0.0,5.0,72,0.00,,,0.00,Wunderground v.1.15,2013-05-30 00:05:00,
2013-05-29 20:08:00,76.9,67.2,30.07,NNW,334,0.0,5.0,72,0.00,,,0.00,Wunderground v.1.15,2013-05-30 00:08:00,
2013-05-29 20:09:00,76.9,67.2,30.07,NNW,334,0.0,5.0,72,0.00,,,0.00,Wunderground v.1.15,2013-05-30 00:09:00,
2013-05-29 20:10:00,76.9,67.2,30.07,NNW,334,0.0,5.0,72,0.00,,,0.00,Wunderground v.1.15,2013-05-30 00:10:00,
2013-05-29 20:14:00,76.6,67.3,30.07,NNW,334,0.0,5.0,73,0.00,,,0.00,Wunderground v.1.15,2013-05-30 00:14:00,
2013-05-29 20:16:00,76.5,67.2,30.07,NNW,334,0.0,5.0,73,0.00,,,0.00,Wunderground v.1.15,2013-05-30 00:16:00,
2013-05-29 20:17:00,76.5,67.2,30.07,NNW,334,0.0,5.0,73,0.00,,,0.00,Wunderground v.1.15,2013-05-30 00:17:00,
2013-05-29 20:21:00,76.2,67.3,30.07,NNW,334,0.0,1.0,74,0.00,,,0.00,Wunderground v.1.15,2013-05-30 00:21:00,
2013-05-29 20:22:00,76.2,67.3,30.07,NNW,334,0.0,1.0,74,0.00,,,0.00,Wunderground v.1.15,2013-05-30 00:22:00,
2013-05-29 20:26:00,76.0,67.1,30.07,NNW,334,0.0,1.0,74,0.00,,,0.00,Wunderground v.1.15,2013-05-30 00:26:00,
2013-05-29 20:27:00,76.0,67.1,30.07,NNW,334,0.0,1.0,74,0.00,,,0.00,Wunderground v.1.15,2013-05-30 00:27:00,
2013-05-29 20:29:00,75.9,67.4,30.06,NNW,334,0.0,1.0,75,0.00,,,0.00,Wunderground v.1.15,2013-05-30 00:29:00,
2013-05-29 20:30:00,75.8,67.3,30.07,NNW,334,0.0,1.0,75,0.00,,,0.00,Wunderground v.1.15,2013-05-30 00:30:00,
2013-05-29 20:31:00,75.8,67.3,30.07,NNW,334,0.0,1.0,75,0.00,,,0.00,Wunderground v.1.15,2013-05-30 00:31:00,
2013-05-29 20:34:00,75.6,67.1,30.07,NNW,334,0.0,1.0,75,0.00,,,0.00,Wunderground v.1.15,2013-05-30 00:34:00,
2013-05-29 20:36:00,75.6,67.5,30.07,NNW,334,0.0,1.0,76,0.00,,,0.00,Wunderground v.1.15,2013-05-30 00:36:00,
2013-05-29 20:38:00,75.5,67.4,30.07,NNW,334,0.0,1.0,76,0.00,,,0.00,Wunderground v.1.15,2013-05-30 00:38:00,
2013-05-29 20:39:00,75.5,67.4,30.07,NNW,334,0.0,1.0,76,0.00,,,0.00,Wunderground v.1.15,2013-05-30 00:39:00,
2013-05-29 20:42:00,75.3,67.2,30.07,NNW,334,0.0,1.0,76,0.00,,,0.00,Wunderground v.1.15,2013-05-30 00:42:00,
2013-05-29 20:43:00,75.3,67.2,30.07,NNW,334,0.0,1.0,76,0.00,,,0.00,Wunderground v.1.15,2013-05-30 00:43:00,
2013-05-29 20:44:00,75.2,67.1,30.07,NNW,334,0.0,1.0,76,0.00,,,0.00,Wunderground v.1.15,2013-05-30 00:44:00,
2013-05-29 20:46:00,75.1,67.0,30.07,NNW,334,0.0,1.0,76,0.00,,,0.00,Wunderground v.1.15,2013-05-30 00:46:00,
2013-05-29 20:48:00,75.1,67.4,30.07,NNW,332,0.0,1.0,77,0.00,,,0.00,Wunderground v.1.15,2013-05-30 00:48:00,
2013-05-29 20:49:00,75.0,67.3,30.07,NNW,332,0.0,1.0,77,0.00,,,0.00,Wunderground v.1.15,2013-05-30 00:49:00,
2013-05-29 20:51:00,74.9,67.2,30.07,NNW,332,0.0,0.0,77,0.00,,,0.00,Wunderground v.1.15,2013-05-30 00:51:00,
2013-05-29 20:53:00,74.8,67.1,30.07,NNW,332,0.0,0.0,77,0.00,,,0.00,Wunderground v.1.15,2013-05-30 00:53:00,
2013-05-29 20:55:00,74.7,67.0,30.07,NNW,329,0.0,0.0,77,0.00,,,0.00,Wunderground v.1.15,2013-05-30 00:55:00,
2013-05-29 20:56:00,74.7,67.0,30.07,NNW,329,0.0,0.0,77,0.00,,,0.00,Wunderground v.1.15,2013-05-30 00:56:00,
2013-05-29 20:58:00,74.6,67.3,30.07,NNW,329,0.0,0.0,78,0.00,,,0.00,Wunderground v.1.15,2013-05-30 00:58:00,
2013-05-29 21:02:00,74.3,67.0,30.06,NNW,329,0.0,0.0,78,0.00,,,0.00,Wunderground v.1.15,2013-05-30 01:02:00,
2013-05-29 21:03:00,74.2,66.9,30.06,NNW,329,0.0,0.0,78,0.00,,,0.00,Wunderground v.1.15,2013-05-30 01:03:00,
2013-05-29 21:05:00,74.1,66.8,30.06,NNW,329,0.0,0.0,78,0.00,,,0.00,Wunderground v.1.15,2013-05-30 01:05:00,
2013-05-29 21:07:00,74.1,66.8,30.06,NNW,329,0.0,0.0,78,0.00,,,0.00,Wunderground v.1.15,2013-05-30 01:07:00,
2013-05-29 21:09:00,74.0,67.1,30.06,NNW,329,0.0,0.0,79,0.00,,,0.00,Wunderground v.1.15,2013-05-30 01:09:00,
2013-05-29 21:10:00,74.0,67.1,30.06,NNW,329,0.0,0.0,79,0.00,,,0.00,Wunderground v.1.15,2013-05-30 01:10:00,
2013-05-29 21:12:00,73.9,67.0,30.06,NNW,329,0.0,0.0,79,0.00,,,0.00,Wunderground v.1.15,2013-05-30 01:12:00,
2013-05-29 21:13:00,73.9,67.0,30.06,NNW,329,0.0,2.0,79,0.00,,,0.00,Wunderground v.1.15,2013-05-30 01:13:00,
2013-05-29 21:14:00,73.9,67.0,30.06,NNW,329,0.0,2.0,79,0.00,,,0.00,Wunderground v.1.15,2013-05-30 01:14:00,
2013-05-29 21:15:00,73.9,67.0,30.06,NNW,329,0.0,2.0,79,0.00,,,0.00,Wunderground v.1.15,2013-05-30 01:15:00,
2013-05-29 21:16:00,73.9,67.0,30.06,NNW,329,0.0,2.0,79,0.00,,,0.00,Wunderground v.1.15,2013-05-30 01:16:00,
2013-05-29 21:17:00,73.8,66.9,30.06,NNW,329,0.0,2.0,79,0.00,,,0.00,Wunderground v.1.15,2013-05-30 01:17:00,
2013-05-29 21:21:00,73.7,67.1,30.06,NNW,329,0.0,2.0,80,0.00,,,0.00,Wunderground v.1.15,2013-05-30 01:21:00,
2013-05-29 21:22:00,73.7,67.1,30.06,NNW,329,0.0,2.0,80,0.00,,,0.00,Wunderground v.1.15,2013-05-30 01:22:00,
2013-05-29 21:23:00,73.7,67.1,30.06,NNW,329,0.0,2.0,80,0.00,,,0.00,Wunderground v.1.15,2013-05-30 01:23:00,
2013-05-29 21:24:00,73.7,67.1,30.07,NNW,329,0.0,2.0,80,0.00,,,0.00,Wunderground v.1.15,2013-05-30 01:24:00,
2013-05-29 21:26:00,73.6,67.0,30.07,NNW,329,0.0,2.0,80,0.00,,,0.00,Wunderground v.1.15,2013-05-30 01:26:00,
2013-05-29 21:29:00,73.6,67.0,30.07,NNW,329,0.0,2.0,80,0.00,,,0.00,Wunderground v.1.15,2013-05-30 01:29:00,
2013-05-29 21:30:00,73.6,67.0,30.07,NNW,329,0.0,2.0,80,0.00,,,0.00,Wunderground v.1.15,2013-05-30 01:30:00,
2013-05-29 21:32:00,73.5,66.9,30.07,NNW,329,0.0,2.0,80,0.00,,,0.00,Wunderground v.1.15,2013-05-30 01:32:00,
2013-05-29 21:34:00,73.4,66.9,30.07,NNW,329,0.0,2.0,80,0.00,,,0.00,Wunderground v.1.15,2013-05-30 01:34:00,
2013-05-29 21:36:00,73.3,67.1,30.07,NNW,329,0.0,2.0,81,0.00,,,0.00,Wunderground v.1.15,2013-05-30 01:36:00,
2013-05-29 21:38:00,73.3,67.1,30.07,NNW,329,0.0,2.0,81,0.00,,,0.00,Wunderground v.1.15,2013-05-30 01:38:00,
2013-05-29 21:39:00,73.2,67.0,30.07,NNW,329,0.0,2.0,81,0.00,,,0.00,Wunderground v.1.15,2013-05-30 01:39:00,
2013-05-29 21:40:00,73.2,67.0,30.07,NNW,329,0.0,2.0,81,0.00,,,0.00,Wunderground v.1.15,2013-05-30 01:40:00,
2013-05-29 21:41:00,73.1,66.9,30.07,NNW,329,0.0,2.0,81,0.00,,,0.00,Wunderground v.1.15,2013-05-30 01:41:00,
2013-05-29 21:43:00,73.1,66.9,30.07,NNW,329,0.0,2.0,81,0.00,,,0.00,Wunderground v.1.15,2013-05-30 01:43:00,
2013-05-29 21:44:00,73.1,66.9,30.07,NNW,329,0.0,2.0,81,0.00,,,0.00,Wunderground v.1.15,2013-05-30 01:44:00,
2013-05-29 21:46:00,73.0,66.8,30.07,NNW,329,0.0,2.0,81,0.00,,,0.00,Wunderground v.1.15,2013-05-30 01:46:00,
2013-05-29 21:47:00,73.0,66.8,30.07,NNW,329,0.0,2.0,81,0.00,,,0.00,Wunderground v.1.15,2013-05-30 01:47:00,
2013-05-29 21:50:00,72.9,66.7,30.07,NNW,329,0.0,0.0,81,0.00,,,0.00,Wunderground v.1.15,2013-05-30 01:50:00,
2013-05-29 21:51:00,72.9,67.1,30.07,NNW,329,0.0,0.0,82,0.00,,,0.00,Wunderground v.1.15,2013-05-30 01:51:00,
2013-05-29 21:52:00,72.9,67.1,30.07,NNW,329,0.0,0.0,82,0.00,,,0.00,Wunderground v.1.15,2013-05-30 01:52:00,
2013-05-29 21:57:00,72.8,66.6,30.07,NNW,329,0.0,0.0,81,0.00,,,0.00,Wunderground v.1.15,2013-05-30 01:57:00,
2013-05-29 21:58:00,72.8,67.0,30.07,NNW,329,0.0,0.0,82,0.00,,,0.00,Wunderground v.1.15,2013-05-30 01:58:00,
2013-05-29 22:00:00,72.8,67.0,30.07,NNW,329,0.0,0.0,82,0.00,,,0.00,Wunderground v.1.15,2013-05-30 02:00:00,
2013-05-29 22:03:00,72.7,66.9,30.07,NNW,329,0.0,0.0,82,0.00,,,0.00,Wunderground v.1.15,2013-05-30 02:03:00,
2013-05-29 22:04:00,72.7,66.9,30.07,NNW,329,0.0,0.0,82,0.00,,,0.00,Wunderground v.1.15,2013-05-30 02:04:00,
2013-05-29 22:07:00,72.6,66.8,30.07,NNW,329,0.0,0.0,82,0.00,,,0.00,Wunderground v.1.15,2013-05-30 02:07:00,
2013-05-29 22:08:00,72.5,66.7,30.07,NNW,329,0.0,0.0,82,0.00,,,0.00,Wunderground v.1.15,2013-05-30 02:08:00,
2013-05-29 22:09:00,72.5,66.7,30.07,NNW,329,0.0,0.0,82,0.00,,,0.00,Wunderground v.1.15,2013-05-30 02:09:00,
2013-05-29 22:11:00,72.4,66.6,30.07,NNW,329,0.0,0.0,82,0.00,,,0.00,Wunderground v.1.15,2013-05-30 02:11:00,
2013-05-29 22:13:00,72.3,66.5,30.07,NNW,329,0.0,0.0,82,0.00,,,0.00,Wunderground v.1.15,2013-05-30 02:13:00,
2013-05-29 22:15:00,72.2,66.4,30.07,NNW,329,0.0,0.0,82,0.00,,,0.00,Wunderground v.1.15,2013-05-30 02:15:00,
2013-05-29 22:17:00,72.2,66.4,30.07,NNW,329,0.0,0.0,82,0.00,,,0.00,Wunderground v.1.15,2013-05-30 02:17:00,
2013-05-29 22:18:00,72.2,66.4,30.07,NNW,329,0.0,0.0,82,0.00,,,0.00,Wunderground v.1.15,2013-05-30 02:18:00,
2013-05-29 22:21:00,72.1,66.3,30.07,NNW,329,0.0,0.0,82,0.00,,,0.00,Wunderground v.1.15,2013-05-30 02:21:00,
2013-05-29 22:23:00,72.2,66.4,30.07,NNW,329,0.0,0.0,82,0.00,,,0.00,Wunderground v.1.15,2013-05-30 02:23:00,
2013-05-29 22:24:00,72.1,66.3,30.07,NNW,329,0.0,0.0,82,0.00,,,0.00,Wunderground v.1.15,2013-05-30 02:24:00,
2013-05-29 22:25:00,72.2,66.4,30.07,NNW,329,0.0,0.0,82,0.00,,,0.00,Wunderground v.1.15,2013-05-30 02:25:00,
2013-05-29 22:27:00,72.2,66.4,30.07,NNW,329,0.0,0.0,82,0.00,,,0.00,Wunderground v.1.15,2013-05-30 02:27:00,
2013-05-29 22:28:00,72.2,66.4,30.07,NNW,329,0.0,0.0,82,0.00,,,0.00,Wunderground v.1.15,2013-05-30 02:28:00,
2013-05-29 22:31:00,72.2,66.4,30.07,NNW,329,0.0,0.0,82,0.00,,,0.00,Wunderground v.1.15,2013-05-30 02:31:00,
2013-05-29 22:32:00,72.2,66.4,30.07,NNW,329,0.0,0.0,82,0.00,,,0.00,Wunderground v.1.15,2013-05-30 02:32:00,
2013-05-29 22:34:00,72.2,66.4,30.07,NNW,329,0.0,0.0,82,0.00,,,0.00,Wunderground v.1.15,2013-05-30 02:34:00,
2013-05-29 22:35:00,72.2,66.4,30.07,NNW,329,0.0,0.0,82,0.00,,,0.00,Wunderground v.1.15,2013-05-30 02:35:00,
2013-05-29 22:37:00,72.1,66.6,30.07,NNW,329,0.0,0.0,83,0.00,,,0.00,Wunderground v.1.15,2013-05-30 02:37:00,
2013-05-29 22:40:00,72.1,66.6,30.07,NNW,329,0.0,0.0,83,0.00,,,0.00,Wunderground v.1.15,2013-05-30 02:40:00,
2013-05-29 22:41:00,72.1,66.6,30.07,NNW,329,0.0,0.0,83,0.00,,,0.00,Wunderground v.1.15,2013-05-30 02:41:00,
2013-05-29 22:44:00,72.1,66.6,30.07,NNW,329,0.0,0.0,83,0.00,,,0.00,Wunderground v.1.15,2013-05-30 02:44:00,
2013-05-29 22:46:00,72.1,66.6,30.07,NNW,329,0.0,0.0,83,0.00,,,0.00,Wunderground v.1.15,2013-05-30 02:46:00,
2013-05-29 22:47:00,72.1,66.6,30.07,NNW,329,0.0,0.0,83,0.00,,,0.00,Wunderground v.1.15,2013-05-30 02:47:00,
2013-05-29 22:48:00,72.2,66.7,30.07,NNW,329,0.0,0.0,83,0.00,,,0.00,Wunderground v.1.15,2013-05-30 02:48:00,
2013-05-29 22:49:00,72.1,66.6,30.07,NNW,329,0.0,0.0,83,0.00,,,0.00,Wunderground v.1.15,2013-05-30 02:49:00,
2013-05-29 22:53:00,72.1,66.6,30.07,NNW,327,0.0,0.0,83,0.00,,,0.00,Wunderground v.1.15,2013-05-30 02:53:00,
2013-05-29 22:54:00,72.1,66.6,30.07,NNW,327,0.0,0.0,83,0.00,,,0.00,Wunderground v.1.15,2013-05-30 02:54:00,
2013-05-29 22:56:00,72.0,66.6,30.07,NNW,327,0.0,0.0,83,0.00,,,0.00,Wunderground v.1.15,2013-05-30 02:56:00,
2013-05-29 23:00:00,71.9,66.5,30.07,NNW,327,0.0,0.0,83,0.00,,,0.00,Wunderground v.1.15,2013-05-30 03:00:00,
2013-05-29 23:01:00,71.9,66.5,30.08,NNW,327,0.0,0.0,83,0.00,,,0.00,Wunderground v.1.15,2013-05-30 03:01:00,
2013-05-29 23:03:00,71.9,66.5,30.08,NNW,327,0.0,0.0,83,0.00,,,0.00,Wunderground v.1.15,2013-05-30 03:03:00,
2013-05-29 23:06:00,71.9,66.5,30.07,NNW,327,0.0,0.0,83,0.00,,,0.00,Wunderground v.1.15,2013-05-30 03:06:00,
2013-05-29 23:08:00,71.8,66.4,30.08,NNW,327,0.0,0.0,83,0.00,,,0.00,Wunderground v.1.15,2013-05-30 03:08:00,
2013-05-29 23:12:00,71.7,66.6,30.08,NNW,327,0.0,0.0,84,0.00,,,0.00,Wunderground v.1.15,2013-05-30 03:12:00,
2013-05-29 23:13:00,71.7,66.6,30.08,NNW,327,0.0,1.0,84,0.00,,,0.00,Wunderground v.1.15,2013-05-30 03:13:00,
2013-05-29 23:14:00,71.7,66.6,30.08,NNW,327,0.0,1.0,84,0.00,,,0.00,Wunderground v.1.15,2013-05-30 03:14:00,
2013-05-29 23:17:00,71.6,66.5,30.08,NW,326,0.0,1.0,84,0.00,,,0.00,Wunderground v.1.15,2013-05-30 03:17:00,
2013-05-29 23:19:00,71.5,66.4,30.08,NW,326,0.0,1.0,84,0.00,,,0.00,Wunderground v.1.15,2013-05-30 03:19:00,
2013-05-29 23:22:00,71.5,66.4,30.08,NW,326,0.0,1.0,84,0.00,,,0.00,Wunderground v.1.15,2013-05-30 03:22:00,
2013-05-29 23:25:00,71.5,66.4,30.08,NW,326,0.0,1.0,84,0.00,,,0.00,Wunderground v.1.15,2013-05-30 03:25:00,
2013-05-29 23:27:00,71.5,66.4,30.08,NW,326,0.0,1.0,84,0.00,,,0.00,Wunderground v.1.15,2013-05-30 03:27:00,
2013-05-29 23:28:00,71.5,66.4,30.08,NW,326,0.0,1.0,84,0.00,,,0.00,Wunderground v.1.15,2013-05-30 03:28:00,
2013-05-29 23:30:00,71.4,66.3,30.08,NW,326,0.0,1.0,84,0.00,,,0.00,Wunderground v.1.15,2013-05-30 03:30:00,
2013-05-29 23:32:00,71.4,66.3,30.08,NW,326,0.0,1.0,84,0.00,,,0.00,Wunderground v.1.15,2013-05-30 03:32:00,
2013-05-29 23:34:00,71.4,66.3,30.08,NW,326,0.0,1.0,84,0.00,,,0.00,Wunderground v.1.15,2013-05-30 03:34:00,
2013-05-29 23:36:00,71.3,66.2,30.08,NW,326,0.0,1.0,84,0.00,,,0.00,Wunderground v.1.15,2013-05-30 03:36:00,
2013-05-29 23:38:00,71.3,66.2,30.08,NW,326,0.0,1.0,84,0.00,,,0.00,Wunderground v.1.15,2013-05-30 03:38:00,
2013-05-29 23:40:00,71.3,66.2,30.08,NW,326,0.0,1.0,84,0.00,,,0.00,Wunderground v.1.15,2013-05-30 03:40:00,
2013-05-29 23:41:00,71.3,66.2,30.08,NNW,328,0.0,1.0,84,0.00,,,0.00,Wunderground v.1.15,2013-05-30 03:41:00,
2013-05-29 23:42:00,71.3,66.2,30.08,NNW,328,0.0,1.0,84,0.00,,,0.00,Wunderground v.1.15,2013-05-30 03:42:00,
2013-05-29 23:44:00,71.2,66.1,30.08,NNW,327,0.0,1.0,84,0.00,,,0.00,Wunderground v.1.15,2013-05-30 03:44:00,
2013-05-29 23:46:00,71.1,66.0,30.08,NNW,327,0.0,1.0,84,0.00,,,0.00,Wunderground v.1.15,2013-05-30 03:46:00,
2013-05-29 23:49:00,71.0,66.3,30.08,NNW,328,0.0,1.0,85,0.00,,,0.00,Wunderground v.1.15,2013-05-30 03:49:00,
2013-05-29 23:50:00,71.0,66.3,30.08,NNW,328,0.0,0.0,85,0.00,,,0.00,Wunderground v.1.15,2013-05-30 03:50:00,
2013-05-29 23:51:00,70.9,66.2,30.08,NNW,328,0.0,0.0,85,0.00,,,0.00,Wunderground v.1.15,2013-05-30 03:51:00,
2013-05-29 23:54:00,70.8,66.1,30.08,NNW,327,0.0,0.0,85,0.00,,,0.00,Wunderground v.1.15,2013-05-30 03:54:00,
2013-05-29 23:57:00,70.7,66.0,30.08,NNW,328,0.0,0.0,85,0.00,,,0.00,Wunderground v.1.15,2013-05-30 03:57:00,
2013-05-29 23:59:00,70.6,65.9,30.08,NNW,327,0.0,0.0,85,0.00,,,0.00,Wunderground v.1.15,2013-05-30 03:59:00,